M I D A S
Marine Information and Data Acquisition System
Tripno 645 of the Zeeleeuw from 2004-02-10 07:25:09 to 2004-02-10 16:58:56
Back to CruiseResearch ActivitiesStationsMapUnderway DataData graphs

EquipmentUnitsComment
TimeDGPSUTC
LatitudeDGPSDM.mWGS84
LongitudeDGPSDM.mWGS84
TemperatureSBE03/SBE38deg celciusITS90
ConductivitySBE21S/mITS90
SalinitySBE21 Practical Salinity Units
ChlorophylAChelsea fluorimeterg/lCalibrated in Aceton
Missing or incorrect values are displayed as -999
Sea surface data collected by the RV Zeeleeuw from 2004-02-10 07:25:09 to 2004-02-10 16:58:56
                                                                                    Next 1000 lines
Time Latitude Longitude Temperature Conductivity Salinity ChlorophylA
2004-02-10 07:25:20 51°13.59 2°56.107 12.865631 0.009547 0.058473 -0.107061
2004-02-10 07:25:24 51°13.591 2°56.105 12.78313 0.009547 0.058474 -0.107061
2004-02-10 07:25:29 51°13.592 2°56.101 12.869044 0.009547 0.058475 -0.14077
2004-02-10 07:25:34 51°13.593 2°56.097 12.961574 0.009547 0.058477 -0.107061
2004-02-10 07:25:40 51°13.595 2°56.092 12.961574 0.009547 0.058477 -0.107061
2004-02-10 07:25:45 51°13.597 2°56.086 12.90783 0.009547 0.058478 -0.107061
2004-02-10 07:25:50 51°13.599 2°56.081 12.879595 0.009547 0.058479 -0.107061
2004-02-10 07:25:55 51°13.6 2°56.075 12.885701 0.009547 0.058479 -0.14077
2004-02-10 07:26:00 51°13.602 2°56.069 12.903612 0.009547 0.05848 -0.14077
2004-02-10 07:26:05 51°13.603 2°56.062 12.901502 0.009547 0.058482 -0.107061
2004-02-10 07:26:10 51°13.605 2°56.056 12.901502 0.009547 0.058482 -0.107061
2004-02-10 07:26:14 51°13.606 2°56.05 12.893557 0.009547 0.058483 -0.107061
2004-02-10 07:26:20 51°13.609 2°56.041 12.904375 0.009547 0.058483 -0.107061
2004-02-10 07:26:25 51°13.611 2°56.034 12.901816 0.009547 0.058485 -0.107061
2004-02-10 07:26:30 51°13.613 2°56.026 12.91151 0.009547 0.058487 -0.14077
2004-02-10 07:26:35 51°13.616 2°56.018 12.901682 0.009547 0.058487 -0.107061
2004-02-10 07:26:40 51°13.618 2°56.01 12.901682 0.009547 0.058487 -0.107061
2004-02-10 07:26:45 51°13.621 2°56.001 12.907067 0.009547 0.058489 -0.14077
2004-02-10 07:26:50 51°13.623 2°55.993 12.905093 0.009547 0.058489 -0.073352
2004-02-10 07:26:55 51°13.626 2°55.984 12.924568 0.009547 0.058491 -0.107061
2004-02-10 07:27:00 51°13.629 2°55.976 12.918915 0.009547 0.058492 -0.17448
2004-02-10 07:27:05 51°13.633 2°55.967 12.921382 0.009547 0.058492 -0.14077
2004-02-10 07:27:10 51°13.636 2°55.957 12.921382 0.009547 0.058492 -0.14077
2004-02-10 07:27:15 51°13.639 2°55.948 12.925331 0.009547 0.058494 -0.107061
2004-02-10 07:27:20 51°13.642 2°55.939 12.952246 0.009547 0.058495 -0.073352
2004-02-10 07:27:25 51°13.645 2°55.93 12.945608 0.009547 0.058497 -0.107061
2004-02-10 07:27:30 51°13.648 2°55.92 12.931074 0.009547 0.058499 -0.073352
2004-02-10 07:27:35 51°13.651 2°55.911 12.937489 0.009547 0.0585 -0.107061
2004-02-10 07:27:40 51°13.654 2°55.901 12.937489 0.009547 0.0585 -0.107061
2004-02-10 07:27:45 51°13.656 2°55.891 12.925241 0.009547 0.058501 -0.107061
2004-02-10 07:27:50 51°13.659 2°55.882 12.930849 0.009547 0.058503 -0.14077
2004-02-10 07:27:55 51°13.661 2°55.872 12.928247 0.009547 0.058505 -0.107061
2004-02-10 07:28:00 51°13.663 2°55.862 12.923132 0.009547 0.058506 -0.14077
2004-02-10 07:28:05 51°13.665 2°55.851 12.936457 0.009547 0.058509 -0.14077
2004-02-10 07:28:10 51°13.667 2°55.841 12.936457 0.009547 0.058509 -0.14077
2004-02-10 07:28:15 51°13.669 2°55.831 12.933406 0.009547 0.05851 -0.107061
2004-02-10 07:28:20 51°13.67 2°55.821 12.99699 0.009547 0.058513 -0.107061
2004-02-10 07:28:25 51°13.671 2°55.812 12.945204 0.009547 0.058513 -0.107061
2004-02-10 07:28:30 51°13.672 2°55.803 12.908997 0.009547 0.058516 -0.107061
2004-02-10 07:28:34 51°13.673 2°55.797 12.92228 0.009547 0.058518 -0.107061
2004-02-10 07:28:39 51°13.674 2°55.79 12.92228 0.009547 0.058518 -0.107061
2004-02-10 07:28:44 51°13.675 2°55.784 12.940539 0.009547 0.058521 -0.107061
2004-02-10 07:28:50 51°13.675 2°55.78 12.970676 0.009547 0.058523 -0.14077
2004-02-10 07:28:54 51°13.676 2°55.779 13.133235 0.009547 0.058525 -0.073352
2004-02-10 07:29:00 51°13.677 2°55.779 13.081958 0.009547 0.058528 -0.073352
2004-02-10 07:29:04 51°13.678 2°55.781 13.149335 0.009547 0.058529 -0.107061
2004-02-10 07:29:09 51°13.68 2°55.783 13.149335 0.009547 0.058529 -0.107061
2004-02-10 07:29:14 51°13.682 2°55.785 12.999859 0.009547 0.05853 -0.107061
2004-02-10 07:29:19 51°13.684 2°55.786 12.915773 0.009547 0.058534 -0.107061
2004-02-10 07:29:24 51°13.685 2°55.786 12.914696 0.009547 0.058539 -0.107061
2004-02-10 07:29:30 51°13.685 2°55.785 12.948478 0.009547 0.058542 -0.107061
2004-02-10 07:29:34 51°13.685 2°55.784 12.915729 0.009547 0.058546 -0.107061
2004-02-10 07:29:40 51°13.684 2°55.781 12.915729 0.009547 0.058546 -0.107061
2004-02-10 07:29:44 51°13.683 2°55.779 12.921831 0.009547 0.058549 -0.14077
2004-02-10 07:29:49 51°13.681 2°55.776 12.946639 0.009547 0.058552 -0.073352
2004-02-10 07:29:55 51°13.68 2°55.773 13.017559 0.009547 0.058556 -0.14077
2004-02-10 07:30:00 51°13.68 2°55.772 13.042511 0.009547 0.058558 -0.107061
2004-02-10 07:30:05 51°13.681 2°55.771 13.147547 0.009547 0.058561 -0.073352
2004-02-10 07:30:09 51°13.683 2°55.77 13.147547 0.009547 0.058561 -0.073352
2004-02-10 07:30:15 51°13.687 2°55.769 13.158859 0.009547 0.058564 -0.107061
2004-02-10 07:30:20 51°13.691 2°55.767 13.05196 0.009547 0.058564 -0.073352
2004-02-10 07:30:24 51°13.694 2°55.765 13.018993 0.009547 0.058568 -0.107061
2004-02-10 07:30:29 51°13.698 2°55.762 13.04587 0.009547 0.058572 -0.107061
2004-02-10 07:30:34 51°13.703 2°55.757 13.066916 0.009547 0.058574 -0.14077
2004-02-10 07:30:40 51°13.709 2°55.75 13.066916 0.009547 0.058574 -0.14077
2004-02-10 07:30:44 51°13.714 2°55.746 12.995197 0.009547 0.058577 -0.14077
2004-02-10 07:30:49 51°13.72 2°55.739 12.978657 0.009547 0.058578 -0.107061
2004-02-10 07:30:54 51°13.726 2°55.731 12.941526 0.009547 0.058581 -0.14077
2004-02-10 07:31:00 51°13.734 2°55.723 12.923222 0.009547 0.058583 -0.107061
2004-02-10 07:31:04 51°13.74 2°55.716 12.938565 0.009547 0.058586 -0.107061
2004-02-10 07:31:09 51°13.747 2°55.709 12.938565 0.009547 0.058586 -0.107061
2004-02-10 07:31:14 51°13.755 2°55.701 12.942199 0.009547 0.058587 -0.073352
2004-02-10 07:31:18 51°13.761 2°55.694 12.915639 0.009547 0.05859 -0.107061
2004-02-10 07:31:24 51°13.771 2°55.684 12.934035 0.009547 0.058591 -0.107061
2004-02-10 07:31:29 51°13.779 2°55.676 12.920575 0.009547 0.058593 -0.14077
2004-02-10 07:31:34 51°13.788 2°55.667 12.92228 0.009547 0.058596 -0.14077
2004-02-10 07:31:39 51°13.797 2°55.659 12.92228 0.009547 0.058596 -0.14077
2004-02-10 07:31:44 51°13.806 2°55.65 12.91703 0.009547 0.058597 -0.107061
2004-02-10 07:31:49 51°13.816 2°55.642 12.88624 0.009547 0.058599 -0.107061
2004-02-10 07:31:54 51°13.825 2°55.634 12.907202 0.009547 0.0586 -0.107061
2004-02-10 07:31:58 51°13.833 2°55.628 12.899033 0.009547 0.058601 -0.107061
2004-02-10 07:32:04 51°13.845 2°55.619 12.917165 0.009547 0.058603 -0.107061
2004-02-10 07:32:09 51°13.855 2°55.611 12.917165 0.009547 0.058603 -0.107061
2004-02-10 07:32:15 51°13.868 2°55.602 12.924389 0.009547 0.058605 -0.073352
2004-02-10 07:32:20 51°13.878 2°55.595 12.919498 0.009547 0.058606 -0.14077
2004-02-10 07:32:24 51°13.887 2°55.589 12.931791 0.009547 0.058609 -0.107061
2004-02-10 07:32:29 51°13.897 2°55.581 12.941975 0.009547 0.05861 -0.107061
2004-02-10 07:32:34 51°13.908 2°55.574 12.936008 0.009547 0.058611 -0.14077
2004-02-10 07:32:38 51°13.916 2°55.568 12.936008 0.009547 0.058611 -0.14077
2004-02-10 07:32:44 51°13.929 2°55.559 12.926632 0.009547 0.058613 -0.14077
2004-02-10 07:32:49 51°13.94 2°55.551 12.93556 0.009547 0.058614 -0.107061
2004-02-10 07:32:54 51°13.951 2°55.544 12.937399 0.009547 0.058615 -0.073352
2004-02-10 07:33:00 51°13.964 2°55.534 12.959601 0.009547 0.058617 -0.039642
2004-02-10 07:33:04 51°13.972 2°55.528 12.944756 0.009547 0.058618 -0.073352
2004-02-10 07:33:09 51°13.983 2°55.52 12.944756 0.009547 0.058618 -0.073352
2004-02-10 07:33:14 51°13.993 2°55.512 12.942872 0.009547 0.058619 -0.14077
2004-02-10 07:33:20 51°14.006 2°55.503 12.966327 0.009547 0.058621 -0.073352
2004-02-10 07:33:24 51°14.015 2°55.497 12.947357 0.009547 0.058622 -0.107061
2004-02-10 07:33:29 51°14.025 2°55.489 12.933765 0.009443 0.058018 -0.107061
2004-02-10 07:33:34 51°14.036 2°55.482 12.926632 0.009443 0.058019 -0.073352
2004-02-10 07:33:39 51°14.047 2°55.474 12.926632 0.009443 0.058019 -0.073352
2004-02-10 07:33:44 51°14.058 2°55.466 12.943858 0.009547 0.058625 -0.107061
2004-02-10 07:33:49 51°14.069 2°55.458 12.947895 0.009547 0.058627 -0.107061
2004-02-10 07:33:54 51°14.08 2°55.45 12.957852 0.009547 0.058628 -0.107061
2004-02-10 07:33:58 51°14.089 2°55.444 12.935425 0.009547 0.058629 -0.073352
2004-02-10 07:34:04 51°14.103 2°55.433 12.94794 0.009547 0.058631 -0.073352
2004-02-10 07:34:09 51°14.114 2°55.424 12.94794 0.009547 0.058631 -0.073352
2004-02-10 07:34:14 51°14.126 2°55.415 12.967672 0.009547 0.058631 -0.073352
2004-02-10 07:34:20 51°14.14 2°55.403 12.949779 0.009547 0.058631 -0.073352
2004-02-10 07:34:24 51°14.15 2°55.395 12.953232 0.009547 0.058633 -0.107061
2004-02-10 07:34:29 51°14.162 2°55.383 12.959376 0.009547 0.058633 -0.107061
2004-02-10 07:34:34 51°14.174 2°55.372 12.950138 0.009547 0.058636 -0.107061
2004-02-10 07:34:40 51°14.189 2°55.357 12.950138 0.009547 0.058636 -0.107061
2004-02-10 07:34:44 51°14.198 2°55.346 12.989998 0.009547 0.058636 -0.107061
2004-02-10 07:34:49 51°14.21 2°55.333 12.936143 0.009547 0.058636 -0.073352
2004-02-10 07:34:54 51°14.222 2°55.318 12.963816 0.009547 0.058637 -0.073352
2004-02-10 07:34:58 51°14.231 2°55.306 12.978567 0.009547 0.058639 -0.14077
2004-02-10 07:35:04 51°14.245 2°55.287 12.953277 0.009547 0.058639 -0.073352
2004-02-10 07:35:09 51°14.256 2°55.27 12.953277 0.009547 0.058639 -0.073352
2004-02-10 07:35:14 51°14.268 2°55.251 12.962381 0.009443 0.058034 -0.107061
2004-02-10 07:35:18 51°14.276 2°55.236 12.923132 0.009547 0.058641 -0.107061
2004-02-10 07:35:24 51°14.289 2°55.213 12.880538 0.009443 0.058035 -0.107061
2004-02-10 07:35:29 51°14.299 2°55.193 12.839714 0.009443 0.058036 -0.107061
2004-02-10 07:35:34 51°14.309 2°55.172 12.871379 0.009443 0.058036 -0.107061
2004-02-10 07:35:39 51°14.319 2°55.151 12.871379 0.009443 0.058036 -0.107061
2004-02-10 07:35:44 51°14.329 2°55.13 12.820079 0.009443 0.058036 -0.073352
2004-02-10 07:35:49 51°14.34 2°55.11 12.812125 0.009547 0.058641 -0.073352
2004-02-10 07:35:54 51°14.351 2°55.089 12.80781 0.009443 0.058037 -0.107061
2004-02-10 07:36:00 51°14.364 2°55.065 12.86599 0.009443 0.058037 -0.073352
2004-02-10 07:36:04 51°14.374 2°55.05 12.843308 0.009547 0.058643 -0.073352
2004-02-10 07:36:09 51°14.386 2°55.031 12.843308 0.009547 0.058643 -0.073352
2004-02-10 07:36:14 51°14.398 2°55.011 12.929907 0.009443 0.058039 -0.073352
2004-02-10 07:36:18 51°14.408 2°54.996 12.925107 0.009443 0.05804 -0.073352
2004-02-10 07:36:24 51°14.422 2°54.972 12.902893 0.009443 0.058041 -0.107061
2004-02-10 07:36:30 51°14.436 2°54.947 12.978791 0.009443 0.058043 -0.107061
2004-02-10 07:36:34 51°14.445 2°54.93 12.938251 0.009443 0.058045 -0.073352
2004-02-10 07:36:40 51°14.457 2°54.903 12.938251 0.009443 0.058045 -0.073352
2004-02-10 07:36:44 51°14.465 2°54.884 12.94794 0.009443 0.058046 -0.107061
2004-02-10 07:36:49 51°14.474 2°54.861 12.887093 0.009443 0.058048 -0.073352
2004-02-10 07:36:54 51°14.483 2°54.837 12.864688 0.009443 0.058049 -0.073352
2004-02-10 07:36:58 51°14.49 2°54.819 12.888485 0.009443 0.05805 -0.073352
2004-02-10 07:37:04 51°14.5 2°54.792 12.874073 0.009443 0.058052 -0.107061
2004-02-10 07:37:09 51°14.507 2°54.77 12.874073 0.009443 0.058052 -0.107061
2004-02-10 07:37:14 51°14.515 2°54.748 12.829426 0.009443 0.058054 -0.107061
2004-02-10 07:37:18 51°14.52 2°54.732 12.905093 0.009547 0.058662 -0.107061
2004-02-10 07:37:24 51°14.529 2°54.707 12.923446 0.009443 0.058058 -0.073352
2004-02-10 07:37:29 51°14.535 2°54.687 12.810282 0.009443 0.058058 -0.107061
2004-02-10 07:37:34 51°14.542 2°54.668 12.860601 0.009443 0.058059 -0.107061
2004-02-10 07:37:38 51°14.547 2°54.653 12.860601 0.009443 0.058059 -0.107061
2004-02-10 07:37:44 51°14.555 2°54.632 12.91344 0.009443 0.058061 -0.107061
2004-02-10 07:37:49 51°14.562 2°54.614 12.852022 0.009443 0.058061 -0.073352
2004-02-10 07:37:54 51°14.568 2°54.597 12.90967 0.009443 0.058062 -0.107061
2004-02-10 07:38:00 51°14.576 2°54.576 12.900111 0.009443 0.058065 -0.107061
2004-02-10 07:38:04 51°14.582 2°54.563 12.823315 0.009443 0.058064 -0.107061
2004-02-10 07:38:10 51°14.59 2°54.544 12.823315 0.009443 0.058064 -0.107061
2004-02-10 07:38:14 51°14.595 2°54.531 12.877171 0.009443 0.058067 -0.14077
2004-02-10 07:38:20 51°14.603 2°54.512 12.922998 0.009443 0.058068 -0.107061
2004-02-10 07:38:24 51°14.609 2°54.498 12.876542 0.009443 0.05807 -0.073352
2004-02-10 07:38:29 51°14.617 2°54.479 12.073938 0.009443 0.058078 -0.073352
2004-02-10 07:38:34 51°14.625 2°54.46 8.906622 0.009443 0.058117 -0.14077
2004-02-10 07:38:40 51°14.635 2°54.435 8.906622 0.009443 0.058117 -0.14077
2004-02-10 07:38:44 51°14.643 2°54.419 7.90473 0.010378 0.063827 42.602751
2004-02-10 07:38:49 51°14.652 2°54.398 7.459484 3.451153 28.39251 29.69205
2004-02-10 07:38:54 51°14.661 2°54.376 7.359403 3.592349 30.977602 17.3207
2004-02-10 07:38:58 51°14.669 2°54.358 7.184103 3.088485 27.517501 11.488973
2004-02-10 07:39:04 51°14.68 2°54.331 7.202178 3.271824 30.300687 8.488836
2004-02-10 07:39:09 51°14.69 2°54.308 7.202178 3.271824 30.300687 8.488836
2004-02-10 07:39:14 51°14.7 2°54.285 7.148818 3.34819 31.648856 5.623537
2004-02-10 07:39:20 51°14.714 2°54.258 7.179399 3.376845 32.309241 4.409999
2004-02-10 07:39:24 51°14.723 2°54.24 7.19052 3.369474 32.468843 3.76952
2004-02-10 07:39:29 51°14.734 2°54.217 7.111994 3.381274 32.775347 3.129042
2004-02-10 07:39:34 51°14.745 2°54.193 7.040589 3.37032 32.723482 2.690819
2004-02-10 07:39:39 51°14.756 2°54.168 7.040589 3.37032 32.723482 2.690819
2004-02-10 07:39:44 51°14.766 2°54.143 6.996921 3.368003 32.739143 2.522272
2004-02-10 07:39:49 51°14.776 2°54.117 6.975887 3.346832 32.532315 2.555982
2004-02-10 07:39:54 51°14.786 2°54.091 6.918844 3.356733 32.663775 2.6234
2004-02-10 07:40:00 51°14.797 2°54.059 6.911907 3.350203 32.663425 2.65711
2004-02-10 07:40:04 51°14.804 2°54.038 6.917319 3.357999 32.80149 2.522272
2004-02-10 07:40:09 51°14.813 2°54.011 6.917319 3.357999 32.80149 2.522272
2004-02-10 07:40:14 51°14.823 2°53.984 6.9397 3.321239 32.451961 2.522272
2004-02-10 07:40:19 51°14.832 2°53.957 6.944274 3.345571 32.76317 2.522272
2004-02-10 07:40:24 51°14.84 2°53.93 6.97284 3.337882 32.70136 2.488563
2004-02-10 07:40:29 51°14.849 2°53.903 7.019667 3.331352 32.656112 2.353725
2004-02-10 07:40:34 51°14.858 2°53.875 7.026494 3.322188 32.554907 2.353725
2004-02-10 07:40:40 51°14.868 2°53.842 7.026494 3.322188 32.554907 2.353725
2004-02-10 07:40:44 51°14.876 2°53.82 7.013281 3.32103 32.536712 2.320016
2004-02-10 07:40:49 51°14.884 2°53.793 7.026249 3.338198 32.712035 2.387435
2004-02-10 07:40:54 51°14.893 2°53.765 7.031062 3.34378 32.750159 2.421144
2004-02-10 07:40:59 51°14.902 2°53.738 7.0427 3.363793 32.950675 2.320016
2004-02-10 07:41:04 51°14.911 2°53.71 7.031111 3.299648 32.24662 2.454853
2004-02-10 07:41:09 51°14.92 2°53.683 7.031111 3.299648 32.24662 2.454853
2004-02-10 07:41:14 51°14.929 2°53.655 7.026593 3.365689 32.959135 2.320016
2004-02-10 07:41:20 51°14.94 2°53.622 7.026887 3.373483 33.043032 2.320016
2004-02-10 07:41:24 51°14.947 2°53.6 7.028852 3.376222 33.075239 2.252597
2004-02-10 07:41:29 51°14.956 2°53.573 7.054827 3.379277 33.110077 2.353725
2004-02-10 07:41:34 51°14.966 2°53.546 7.042602 3.381068 33.134433 2.185178
2004-02-10 07:41:40 51°14.978 2°53.512 7.042602 3.381068 33.134433 2.185178
2004-02-10 07:41:44 51°14.985 2°53.491 7.027722 3.38486 33.171604 2.320016
2004-02-10 07:41:49 51°14.995 2°53.463 7.020551 3.390969 33.239697 2.185178
2004-02-10 07:41:54 51°15.005 2°53.436 7.027722 3.390864 33.231203 2.117759
2004-02-10 07:42:00 51°15.016 2°53.403 7.03504 3.39908 33.320595 2.151469
2004-02-10 07:42:04 51°15.024 2°53.382 7.016917 3.400555 33.341557 2.218888
2004-02-10 07:42:09 51°15.034 2°53.355 7.016917 3.400555 33.341557 2.218888
2004-02-10 07:42:14 51°15.044 2°53.327 7.006158 3.400344 33.337626 2.117759
2004-02-10 07:42:20 51°15.055 2°53.295 6.998788 3.399291 33.339267 2.050341
2004-02-10 07:42:24 51°15.063 2°53.273 6.998887 3.407718 33.431033 2.286306
2004-02-10 07:42:29 51°15.073 2°53.245 7.008369 3.400239 33.362708 2.151469
2004-02-10 07:42:34 51°15.082 2°53.217 6.984783 3.400134 33.361561 2.08405
2004-02-10 07:42:40 51°15.093 2°53.184 6.984783 3.400134 33.361561 2.08405
2004-02-10 07:42:44 51°15.1 2°53.161 6.98321 3.397184 33.340094 2.151469
2004-02-10 07:42:50 51°15.111 2°53.127 6.988567 3.395394 33.322226 2.117759
2004-02-10 07:42:54 51°15.119 2°53.105 6.996528 3.397395 33.347311 2.151469
2004-02-10 07:42:58 51°15.126 2°53.083 6.996725 3.404769 33.435071 2.185178
2004-02-10 07:43:04 51°15.138 2°53.05 7.004439 3.404874 33.441156 2.117759
2004-02-10 07:43:09 51°15.148 2°53.022 7.004439 3.404874 33.441156 2.117759
2004-02-10 07:43:14 51°15.158 2°52.994 7.01112 3.402452 33.415563 2.117759
2004-02-10 07:43:18 51°15.166 2°52.972 7.020306 3.410457 33.502864 2.185178
2004-02-10 07:43:24 51°15.177 2°52.938 7.023744 3.409193 33.494848 2.218888
2004-02-10 07:43:30 51°15.187 2°52.904 7.018832 3.404137 33.432294 2.252597
2004-02-10 07:43:34 51°15.194 2°52.881 7.024235 3.418779 33.58538 2.218888
2004-02-10 07:43:38 51°15.201 2°52.857 7.024235 3.418779 33.58538 2.218888
2004-02-10 07:43:44 51°15.211 2°52.822 7.02006 3.423204 33.627855 2.252597
2004-02-10 07:43:48 51°15.218 2°52.799 7.020797 3.414671 33.52902 2.320016
2004-02-10 07:43:54 51°15.227 2°52.764 7.016573 3.433422 33.733538 2.421144
2004-02-10 07:43:58 51°15.234 2°52.74 7.023106 3.423098 33.621743 2.353725
2004-02-10 07:44:04 51°15.244 2°52.705 7.0262 3.429314 33.692027 2.286306
2004-02-10 07:44:09 51°15.252 2°52.675 7.0262 3.429314 33.692027 2.286306
2004-02-10 07:44:14 51°15.261 2°52.646 7.021976 3.431631 33.719804 2.286306
2004-02-10 07:44:18 51°15.268 2°52.623 7.020453 3.424678 33.643943 2.320016
2004-02-10 07:44:24 51°15.278 2°52.588 7.024039 3.429314 33.691198 2.387435
2004-02-10 07:44:29 51°15.287 2°52.559 7.02561 3.437846 33.782652 2.185178
2004-02-10 07:44:34 51°15.296 2°52.531 7.030669 3.43279 33.73079 2.151469
2004-02-10 07:44:40 51°15.306 2°52.496 7.030669 3.43279 33.73079 2.151469
2004-02-10 07:44:44 51°15.314 2°52.473 7.031553 3.437846 33.785146 2.117759
2004-02-10 07:44:49 51°15.322 2°52.444 7.033567 3.439427 33.804057 2.218888
2004-02-10 07:44:54 51°15.331 2°52.415 7.032633 3.436477 33.769367 2.151469
2004-02-10 07:44:58 51°15.338 2°52.392 7.03995 3.434581 33.747013 2.218888
2004-02-10 07:45:04 51°15.346 2°52.356 7.023253 3.438268 33.783927 2.218888
2004-02-10 07:45:09 51°15.352 2°52.325 7.023253 3.438268 33.783927 2.218888
2004-02-10 07:45:14 51°15.358 2°52.294 7.018538 3.435318 33.752569 2.151469
2004-02-10 07:45:20 51°15.363 2°52.257 7.017211 3.424257 33.6319 2.218888
2004-02-10 07:45:24 51°15.367 2°52.232 7.016769 3.441217 33.814457 2.151469
2004-02-10 07:45:29 51°15.372 2°52.201 7.015639 3.436161 33.76758 2.117759
2004-02-10 07:45:34 51°15.376 2°52.169 7.019029 3.447538 33.89179 2.050341
2004-02-10 07:45:40 51°15.381 2°52.132 7.019029 3.447538 33.89179 2.050341
2004-02-10 07:45:44 51°15.384 2°52.107 7.024039 3.440269 33.817418 2.117759
2004-02-10 07:45:49 51°15.389 2°52.075 7.027673 3.439848 33.813649 2.218888
2004-02-10 07:45:54 51°15.393 2°52.044 7.033959 3.441744 33.836851 2.185178
2004-02-10 07:45:58 51°15.395 2°52.018 7.029343 3.442482 33.84657 2.185178
2004-02-10 07:46:04 51°15.399 2°51.98 7.014657 3.441534 33.830388 2.218888
2004-02-10 07:46:09 51°15.402 2°51.948 7.014657 3.441534 33.830388 2.218888
2004-02-10 07:46:14 51°15.405 2°51.917 7.014264 3.427101 33.672033 2.218888
2004-02-10 07:46:20 51°15.408 2°51.878 7.017408 3.444589 33.857915 2.117759
2004-02-10 07:46:25 51°15.41 2°51.846 7.020846 3.443008 33.840662 2.286306
2004-02-10 07:46:29 51°15.412 2°51.821 7.027477 3.446063 33.878185 2.320016
2004-02-10 07:46:34 51°15.414 2°51.789 7.026347 3.450067 33.930254 2.320016
2004-02-10 07:46:39 51°15.416 2°51.757 7.026347 3.450067 33.930254 2.320016
2004-02-10 07:46:44 51°15.418 2°51.725 7.028803 3.441218 33.832765 2.320016
2004-02-10 07:46:50 51°15.421 2°51.686 7.028655 3.447433 33.903152 2.320016
2004-02-10 07:46:54 51°15.422 2°51.66 7.028508 3.444799 33.870214 2.252597
2004-02-10 07:47:00 51°15.425 2°51.622 7.034892 3.443957 33.86101 2.218888
2004-02-10 07:47:04 51°15.426 2°51.596 7.037446 3.445747 33.875567 2.185178
2004-02-10 07:47:09 51°15.428 2°51.564 7.037446 3.445747 33.875567 2.185178
2004-02-10 07:47:14 51°15.43 2°51.531 7.046824 3.447854 33.896909 2.218888
2004-02-10 07:47:19 51°15.432 2°51.499 7.051881 3.447117 33.892191 2.252597
2004-02-10 07:47:24 51°15.434 2°51.467 7.059392 3.448381 33.902661 2.117759
2004-02-10 07:47:29 51°15.436 2°51.435 7.061405 3.442587 33.836062 2.151469
2004-02-10 07:47:34 51°15.438 2°51.403 7.064497 3.453964 33.956126 2.151469
2004-02-10 07:47:38 51°15.44 2°51.377 7.064497 3.453964 33.956126 2.151469
2004-02-10 07:47:44 51°15.443 2°51.338 7.069209 3.453332 33.940874 2.117759
2004-02-10 07:47:49 51°15.445 2°51.306 7.070976 3.44817 33.881187 2.016631
2004-02-10 07:47:54 51°15.447 2°51.274 7.069062 3.453121 33.931063 2.252597
2004-02-10 07:47:58 51°15.45 2°51.249 7.073381 3.449645 33.884787 2.185178
2004-02-10 07:48:04 51°15.452 2°51.21 7.072154 3.456808 33.960461 2.320016
2004-02-10 07:48:09 51°15.454 2°51.178 7.072154 3.456808 33.960461 2.320016
2004-02-10 07:48:14 51°15.457 2°51.146 7.074608 3.449539 33.881139 2.286306
2004-02-10 07:48:19 51°15.459 2°51.114 7.077111 3.447854 33.862749 2.286306
2004-02-10 07:48:24 51°15.461 2°51.081 7.082165 3.447643 33.858786 2.286306
2004-02-10 07:48:29 51°15.464 2°51.049 7.069651 3.452911 33.916255 2.218888
2004-02-10 07:48:34 51°15.466 2°51.017 7.070633 3.457967 33.968934 2.252597
2004-02-10 07:48:40 51°15.469 2°50.979 7.070633 3.457967 33.968934 2.252597
2004-02-10 07:48:44 51°15.471 2°50.954 7.0697 3.447327 33.848684 2.218888
2004-02-10 07:48:49 51°15.473 2°50.922 7.067737 3.447854 33.853597 2.252597
2004-02-10 07:48:54 51°15.476 2°50.89 7.067344 3.44975 33.877609 2.252597
2004-02-10 07:48:59 51°15.478 2°50.858 7.065872 3.449961 33.883238 2.252597
2004-02-10 07:49:04 51°15.481 2°50.826 7.06754 3.449645 33.87979 2.185178
2004-02-10 07:49:09 51°15.483 2°50.794 7.06754 3.449645 33.87979 2.185178
2004-02-10 07:49:14 51°15.486 2°50.762 7.066362 3.459653 33.989836 2.151469
2004-02-10 07:49:18 51°15.487 2°50.736 7.06759 3.456492 33.958681 2.117759
2004-02-10 07:49:24 51°15.49 2°50.698 7.072105 3.447749 33.864097 2.151469
2004-02-10 07:49:29 51°15.493 2°50.666 7.073577 3.447643 33.864612 2.151469
2004-02-10 07:49:34 51°15.495 2°50.634 7.080448 3.455123 33.946237 2.185178
2004-02-10 07:49:38 51°15.497 2°50.608 7.080448 3.455123 33.946237 2.185178
2004-02-10 07:49:44 51°15.499 2°50.57 7.080399 3.453016 33.919906 2.252597
2004-02-10 07:49:49 51°15.502 2°50.538 7.079712 3.44501 33.83172 2.151469
2004-02-10 07:49:54 51°15.504 2°50.506 7.084815 3.450382 33.888668 2.151469
2004-02-10 07:50:00 51°15.507 2°50.468 7.084962 3.4527 33.913123 2.050341
2004-02-10 07:50:04 51°15.509 2°50.442 7.086925 3.441006 33.783075 2.218888
2004-02-10 07:50:09 51°15.511 2°50.41 7.086925 3.441006 33.783075 2.218888
2004-02-10 07:50:14 51°15.514 2°50.378 7.088888 3.449539 33.871981 2.08405
2004-02-10 07:50:19 51°15.516 2°50.346 7.08928 3.451436 33.892666 2.286306
2004-02-10 07:50:24 51°15.519 2°50.314 7.093402 3.457124 33.952227 2.286306
2004-02-10 07:50:30 51°15.521 2°50.276 7.095511 3.458178 33.963721 2.218888
2004-02-10 07:50:34 51°15.523 2°50.25 7.094726 3.433105 33.689484 2.185178
2004-02-10 07:50:40 51°15.526 2°50.212 7.094726 3.433105 33.689484 2.185178
2004-02-10 07:50:44 51°15.528 2°50.186 7.096689 3.453753 33.911283 2.218888
2004-02-10 07:50:49 51°15.531 2°50.154 7.097621 3.458494 33.963832 2.185178
2004-02-10 07:50:55 51°15.534 2°50.116 7.100564 3.457124 33.946389 2.117759
2004-02-10 07:51:00 51°15.536 2°50.084 7.098651 3.444167 33.80425 2.218888
2004-02-10 07:51:04 51°15.539 2°50.059 7.102674 3.458283 33.95486 2.185178
2004-02-10 07:51:10 51°15.541 2°50.021 7.102674 3.458283 33.95486 2.185178
2004-02-10 07:51:14 51°15.544 2°49.995 7.104979 3.450171 33.867226 2.252597
2004-02-10 07:51:20 51°15.546 2°49.957 7.101693 3.458704 33.958622 2.218888
2004-02-10 07:51:24 51°15.548 2°49.931 7.102723 3.460811 33.980771 2.252597
2004-02-10 07:51:29 51°15.55 2°49.899 7.107922 3.45881 33.958937 2.252597
2004-02-10 07:51:34 51°15.553 2°49.868 7.109198 3.459863 33.967926 2.320016
2004-02-10 07:51:40 51°15.556 2°49.829 7.109198 3.459863 33.967926 2.320016
2004-02-10 07:51:44 51°15.558 2°49.803 7.110816 3.458599 33.95247 2.320016
2004-02-10 07:51:49 51°15.56 2°49.771 7.114054 3.451119 33.870078 2.252597
2004-02-10 07:51:54 51°15.562 2°49.739 7.1168 3.459336 33.958845 2.286306
2004-02-10 07:52:00 51°15.565 2°49.701 7.119252 3.458178 33.94454 2.185178
2004-02-10 07:52:04 51°15.567 2°49.675 7.123176 3.454806 33.905284 2.353725
2004-02-10 07:52:10 51°15.57 2°49.636 7.123176 3.454806 33.905284 2.353725
2004-02-10 07:52:14 51°15.572 2°49.611 7.123813 3.459126 33.951545 2.185178
2004-02-10 07:52:20 51°15.575 2°49.572 7.125824 3.451119 33.860932 2.252597
2004-02-10 07:52:24 51°15.577 2°49.547 7.125039 3.461865 33.977243 2.286306
2004-02-10 07:52:30 51°15.58 2°49.508 7.125088 3.459547 33.946139 2.387435
2004-02-10 07:52:34 51°15.582 2°49.483 7.128275 3.463129 33.987691 2.286306
2004-02-10 07:52:40 51°15.585 2°49.445 7.128275 3.463129 33.987691 2.286306
2004-02-10 07:52:44 51°15.587 2°49.419 7.124598 3.460917 33.958568 2.387435
2004-02-10 07:52:50 51°15.59 2°49.38 7.125039 3.464604 33.997932 2.421144
2004-02-10 07:52:54 51°15.592 2°49.355 7.12347 3.462813 33.977573 2.454853
2004-02-10 07:53:00 51°15.594 2°49.317 7.122293 3.46334 33.982481 2.286306
2004-02-10 07:53:04 51°15.596 2°49.292 7.125039 3.464498 33.997617 2.320016
2004-02-10 07:53:09 51°15.598 2°49.26 7.125039 3.464498 33.997617 2.320016
2004-02-10 07:53:14 51°15.601 2°49.228 7.126216 3.4665 34.018607 2.185178
2004-02-10 07:53:19 51°15.604 2°49.196 7.126951 3.463866 33.992394 2.286306
2004-02-10 07:53:24 51°15.606 2°49.165 7.126216 3.460179 33.954696 2.151469
2004-02-10 07:53:30 51°15.609 2°49.127 7.126363 3.447432 33.811618 2.252597
2004-02-10 07:53:34 51°15.612 2°49.101 7.125971 3.450382 33.843756 2.387435
2004-02-10 07:53:40 51°15.614 2°49.064 7.125971 3.450382 33.843756 2.387435
2004-02-10 07:53:44 51°15.616 2°49.038 7.12195 3.4665 34.018607 2.421144
2004-02-10 07:53:49 51°15.619 2°49.007 7.124107 3.466289 34.01464 2.353725
2004-02-10 07:53:54 51°15.621 2°48.975 7.125676 3.466289 34.013805 2.218888
2004-02-10 07:54:00 51°15.624 2°48.937 7.124696 3.466289 34.01464 2.218888
2004-02-10 07:54:04 51°15.626 2°48.912 7.124303 3.455333 33.896879 2.185178
2004-02-10 07:54:09 51°15.629 2°48.881 7.124303 3.455333 33.896879 2.185178
2004-02-10 07:54:14 51°15.631 2°48.849 7.127295 3.464077 33.994692 2.218888
2004-02-10 07:54:20 51°15.634 2°48.811 7.132885 3.466605 34.022261 2.286306
2004-02-10 07:54:24 51°15.636 2°48.786 7.134601 3.465447 34.007955 2.252597
2004-02-10 07:54:29 51°15.639 2°48.754 7.141318 3.46787 34.034376 2.151469
2004-02-10 07:54:34 51°15.641 2°48.723 7.149847 3.4665 34.016937 2.117759
2004-02-10 07:54:39 51°15.644 2°48.691 7.149847 3.4665 34.016937 2.117759
2004-02-10 07:54:44 51°15.647 2°48.659 7.14269 3.45744 33.919009 2.185178
2004-02-10 07:54:49 51°15.649 2°48.627 7.142788 3.464814 33.993555 2.353725
2004-02-10 07:54:54 51°15.652 2°48.596 7.140092 3.462602 33.966107 2.286306
2004-02-10 07:55:00 51°15.654 2°48.557 7.134601 3.467132 34.011309 2.320016
2004-02-10 07:55:04 51°15.657 2°48.532 7.138327 3.466289 34.00129 2.353725
2004-02-10 07:55:09 51°15.659 2°48.499 7.138327 3.466289 34.00129 2.353725
2004-02-10 07:55:14 51°15.662 2°48.467 7.131119 3.466816 34.007865 2.252597
2004-02-10 07:55:19 51°15.664 2°48.435 7.133571 3.467659 34.01872 2.320016
2004-02-10 07:55:24 51°15.666 2°48.403 7.131904 3.464498 33.986774 2.185178
2004-02-10 07:55:29 51°15.669 2°48.371 7.132002 3.468712 34.034378 2.252597
2004-02-10 07:55:34 51°15.672 2°48.338 7.125824 3.461443 33.95681 2.353725
2004-02-10 07:55:40 51°15.675 2°48.3 7.125824 3.461443 33.95681 2.353725
2004-02-10 07:55:44 51°15.677 2°48.274 7.12705 3.468396 34.035108 2.252597
2004-02-10 07:55:49 51°15.68 2°48.242 7.128373 3.469134 34.044819 2.286306
2004-02-10 07:55:54 51°15.682 2°48.209 7.130874 3.466395 34.014954 2.353725
2004-02-10 07:55:59 51°15.684 2°48.177 7.130286 3.469028 34.043671 2.286306
2004-02-10 07:56:04 51°15.687 2°48.144 7.135728 3.467764 34.030721 2.353725
2004-02-10 07:56:09 51°15.69 2°48.112 7.135728 3.467764 34.030721 2.353725
2004-02-10 07:56:14 51°15.692 2°48.079 7.132443 3.460917 33.958568 2.353725
2004-02-10 07:56:20 51°15.696 2°48.041 7.133179 3.457019 33.914416 2.353725
2004-02-10 07:56:24 51°15.698 2°48.015 7.134405 3.470503 34.061425 2.353725
2004-02-10 07:56:29 51°15.7 2°47.982 7.131365 3.466605 34.015582 2.218888
2004-02-10 07:56:34 51°15.702 2°47.95 7.129403 3.469239 34.045968 2.320016
2004-02-10 07:56:40 51°15.705 2°47.911 7.129403 3.469239 34.045968 2.320016
2004-02-10 07:56:44 51°15.707 2°47.885 7.126951 3.46787 34.02853 2.387435
2004-02-10 07:56:49 51°15.71 2°47.853 7.123666 3.470187 34.054636 2.353725
2004-02-10 07:56:54 51°15.712 2°47.82 7.122832 3.472505 34.079909 2.488563
2004-02-10 07:57:00 51°15.715 2°47.782 7.121312 3.46039 33.947827 2.421144
2004-02-10 07:57:04 51°15.718 2°47.756 7.120429 3.465868 34.013384 2.353725
2004-02-10 07:57:09 51°15.72 2°47.723 7.120429 3.465868 34.013384 2.353725
2004-02-10 07:57:14 51°15.723 2°47.691 7.116162 3.471241 34.073649 2.421144
2004-02-10 07:57:19 51°15.725 2°47.658 7.11734 3.464498 34.000955 2.421144
2004-02-10 07:57:24 51°15.728 2°47.625 7.118468 3.459336 33.944675 2.454853
2004-02-10 07:57:30 51°15.731 2°47.586 7.123028 3.470714 34.071249 2.387435
2004-02-10 07:57:34 51°15.732 2°47.56 7.125431 3.473032 34.100717 2.454853
2004-02-10 07:57:40 51°15.736 2°47.521 7.125431 3.473032 34.100717 2.454853
2004-02-10 07:57:44 51°15.737 2°47.495 7.125775 3.470819 34.074907 2.488563
2004-02-10 07:57:49 51°15.74 2°47.463 7.125775 3.457545 33.929316 2.387435
2004-02-10 07:57:54 51°15.742 2°47.43 7.122342 3.469977 34.065713 2.454853
2004-02-10 07:58:00 51°15.745 2°47.391 7.125726 3.470819 34.071561 2.488563
2004-02-10 07:58:04 51°15.747 2°47.364 7.125971 3.471346 34.075634 2.522272
2004-02-10 07:58:09 51°15.75 2°47.331 7.125971 3.471346 34.075634 2.522272
2004-02-10 07:58:14 51°15.752 2°47.299 7.12803 3.469661 34.058085 2.488563
2004-02-10 07:58:20 51°15.755 2°47.26 7.129746 3.469871 34.06122 2.454853
2004-02-10 07:58:24 51°15.757 2°47.234 7.13161 3.469977 34.05986 2.421144
2004-02-10 07:58:30 51°15.76 2°47.195 7.129501 3.469871 34.060383 2.454853
2004-02-10 07:58:34 51°15.762 2°47.169 7.130286 3.471135 34.0725 2.488563
2004-02-10 07:58:39 51°15.765 2°47.136 7.130286 3.471135 34.0725 2.488563
2004-02-10 07:58:44 51°15.767 2°47.104 7.126755 3.471452 34.07511 2.454853
2004-02-10 07:58:49 51°15.77 2°47.072 7.124352 3.446168 33.797847 2.589691
2004-02-10 07:58:54 51°15.772 2°47.039 7.129256 3.47103 34.068006 2.353725
2004-02-10 07:58:59 51°15.775 2°47.007 7.126608 3.472084 34.079495 2.353725
2004-02-10 07:59:04 51°15.778 2°46.974 7.123666 3.471978 34.080019 2.286306
2004-02-10 07:59:10 51°15.781 2°46.935 7.123666 3.471978 34.080019 2.286306
2004-02-10 07:59:15 51°15.784 2°46.903 7.123323 3.469239 34.048475 2.252597
2004-02-10 07:59:18 51°15.785 2°46.884 7.122342 3.469134 34.050669 2.252597
2004-02-10 07:59:24 51°15.788 2°46.845 7.12038 3.463656 33.9926 2.286306
2004-02-10 07:59:29 51°15.79 2°46.812 7.120576 3.472821 34.09507 2.252597
2004-02-10 07:59:34 51°15.793 2°46.78 7.113759 3.469661 34.058085 2.286306
2004-02-10 07:59:40 51°15.796 2°46.742 7.113759 3.469661 34.058085 2.286306
2004-02-10 07:59:44 51°15.798 2°46.716 7.11322 3.468923 34.050878 2.387435
2004-02-10 07:59:49 51°15.8 2°46.684 7.115329 3.471557 34.080442 2.353725
2004-02-10 07:59:54 51°15.803 2°46.652 7.111405 3.472716 34.094757 2.387435
2004-02-10 07:59:59 51°15.805 2°46.62 7.104832 3.473137 34.102703 2.286306
2004-02-10 08:00:04 51°15.808 2°46.588 7.101594 3.473137 34.105215 2.320016
2004-02-10 08:00:09 51°15.81 2°46.555 7.101594 3.473137 34.105215 2.320016
2004-02-10 08:00:14 51°15.813 2°46.523 7.095021 3.453437 33.892849 2.050341
2004-02-10 08:00:19 51°15.815 2°46.491 7.092764 3.470398 34.078677 2.151469
2004-02-10 08:00:24 51°15.817 2°46.459 7.086434 3.461549 33.986312 2.286306
2004-02-10 08:00:29 51°15.819 2°46.427 7.084423 3.471873 34.102307 2.117759
2004-02-10 08:00:34 51°15.822 2°46.395 7.081675 3.473032 34.119984 2.218888
2004-02-10 08:00:39 51°15.824 2°46.363 7.081675 3.473032 34.119984 2.218888
2004-02-10 08:00:44 51°15.826 2°46.331 7.083539 3.472821 34.121037 2.08405
2004-02-10 08:00:49 51°15.829 2°46.299 7.079123 3.463761 34.026323 2.185178
2004-02-10 08:00:54 51°15.831 2°46.267 7.079761 3.465342 34.048591 2.151469
2004-02-10 08:01:00 51°15.834 2°46.228 7.076326 3.475982 34.167298 2.151469
2004-02-10 08:01:04 51°15.836 2°46.202 7.073823 3.472189 34.127552 2.08405
2004-02-10 08:01:09 51°15.839 2°46.17 7.073823 3.472189 34.127552 2.08405
2004-02-10 08:01:14 51°15.842 2°46.138 7.072596 3.474718 34.156008 2.08405
2004-02-10 08:01:19 51°15.844 2°46.106 7.072792 3.475139 34.16229 2.117759
2004-02-10 08:01:24 51°15.847 2°46.074 7.070976 3.476193 34.175479 2.151469
2004-02-10 08:01:30 51°15.85 2°46.035 7.072301 3.473664 34.152895 2.151469
2004-02-10 08:01:35 51°15.853 2°46.003 7.072399 3.472295 34.135415 2.117759
2004-02-10 08:01:38 51°15.854 2°45.984 7.072399 3.472295 34.135415 2.117759
2004-02-10 08:01:44 51°15.857 2°45.946 7.069356 3.472716 34.142537 2.151469
2004-02-10 08:01:49 51°15.859 2°45.913 7.064939 3.470188 34.114916 2.151469
2004-02-10 08:01:54 51°15.862 2°45.881 7.065283 3.472084 34.135631 2.185178
2004-02-10 08:02:00 51°15.864 2°45.843 7.063368 3.47535 34.173833 2.08405
2004-02-10 08:02:04 51°15.866 2°45.817 7.066068 3.475456 34.175824 2.08405
2004-02-10 08:02:09 51°15.868 2°45.785 7.066068 3.475456 34.175824 2.08405
2004-02-10 08:02:14 51°15.871 2°45.753 7.070976 3.473243 34.15417 2.050341
2004-02-10 08:02:19 51°15.873 2°45.72 7.074215 3.477352 34.201593 2.252597
2004-02-10 08:02:24 51°15.876 2°45.688 7.066412 3.472822 34.152925 2.016631
2004-02-10 08:02:30 51°15.879 2°45.65 7.069455 3.477141 34.19929 1.982922
2004-02-10 08:02:34 51°15.88 2°45.625 7.068669 3.477773 34.206199 2.117759
2004-02-10 08:02:40 51°15.883 2°45.587 7.068669 3.477773 34.206199 2.117759
2004-02-10 08:02:44 51°15.885 2°45.561 7.071761 3.473138 34.152179 1.848084
2004-02-10 08:02:50 51°15.888 2°45.522 7.07451 3.480091 34.229008 2.117759
2004-02-10 08:02:54 51°15.89 2°45.496 7.073872 3.481671 34.247124 2.117759
2004-02-10 08:03:00 51°15.894 2°45.458 7.071614 3.47988 34.228389 2.050341
2004-02-10 08:03:04 51°15.895 2°45.433 7.075148 3.480196 34.22511 2.050341
2004-02-10 08:03:09 51°15.897 2°45.401 7.075148 3.480196 34.22511 2.050341
2004-02-10 08:03:14 51°15.9 2°45.37 7.076669 3.48125 34.239149 2.08405
2004-02-10 08:03:19 51°15.902 2°45.338 7.073921 3.477563 34.197168 2.016631
2004-02-10 08:03:24 51°15.905 2°45.306 7.074706 3.482093 34.24752 2.016631
2004-02-10 08:03:29 51°15.908 2°45.274 7.072105 3.477036 34.192252 2.050341
2004-02-10 08:03:34 51°15.911 2°45.242 7.071909 3.482093 34.2391 2.218888
2004-02-10 08:03:40 51°15.915 2°45.204 7.071909 3.482093 34.2391 2.218888
2004-02-10 08:03:44 51°15.918 2°45.179 7.07181 3.482725 34.251902 2.117759
2004-02-10 08:03:49 51°15.922 2°45.147 7.072743 3.480828 34.233701 2.016631
2004-02-10 08:03:54 51°15.925 2°45.116 7.07181 3.481461 34.239768 1.982922
2004-02-10 08:03:58 51°15.929 2°45.091 7.071418 3.481566 34.243446 2.016631
2004-02-10 08:04:04 51°15.933 2°45.053 7.071123 3.481039 34.235163 2.117759
2004-02-10 08:04:09 51°15.938 2°45.021 7.071123 3.481039 34.235163 2.117759
2004-02-10 08:04:14 51°15.943 2°44.99 7.07078 3.481461 34.24061 2.218888
2004-02-10 08:04:20 51°15.949 2°44.953 7.067884 3.479986 34.226173 2.050341
2004-02-10 08:04:24 51°15.952 2°44.927 7.071025 3.48125 34.240833 2.185178
2004-02-10 08:04:30 51°15.959 2°44.89 7.066608 3.481144 34.237998 2.218888
2004-02-10 08:04:34 51°15.963 2°44.865 7.064252 3.478932 34.214659 2.08405
2004-02-10 08:04:40 51°15.971 2°44.829 7.064252 3.478932 34.214659 2.08405
2004-02-10 08:04:44 51°15.977 2°44.806 7.064792 3.47219 34.144338 2.185178
2004-02-10 08:04:49 51°15.985 2°44.778 7.06754 3.480407 34.232463 2.08405
2004-02-10 08:04:54 51°15.995 2°44.75 7.063123 3.475456 34.178346 2.117759
2004-02-10 08:05:00 51°16.006 2°44.717 7.06165 3.479038 34.220859 2.08405
2004-02-10 08:05:04 51°16.014 2°44.696 7.066461 3.479564 34.228301 2.016631
2004-02-10 08:05:09 51°16.025 2°44.67 7.066461 3.479564 34.228301 2.016631
2004-02-10 08:05:14 51°16.036 2°44.643 7.065626 3.480196 34.233527 2.08405
2004-02-10 08:05:20 51°16.049 2°44.611 7.062779 3.478721 34.216563 2.016631
2004-02-10 08:05:25 51°16.059 2°44.585 7.058312 3.478511 34.215943 1.949212
2004-02-10 08:05:30 51°16.07 2°44.559 7.057576 3.479248 34.224004 2.050341
2004-02-10 08:05:34 51°16.079 2°44.539 7.056251 3.478405 34.215633 2.151469
2004-02-10 08:05:40 51°16.092 2°44.508 7.056251 3.478405 34.215633 2.151469
2004-02-10 08:05:44 51°16.102 2°44.488 7.06003 3.478932 34.221391 2.016631
2004-02-10 08:05:49 51°16.114 2°44.463 7.057232 3.478616 34.219619 2.016631
2004-02-10 08:05:54 51°16.127 2°44.438 7.055661 3.478511 34.21931 1.915503
2004-02-10 08:06:00 51°16.142 2°44.408 7.054631 3.478195 34.217538 1.949212
2004-02-10 08:06:04 51°16.151 2°44.388 7.051587 3.476615 34.200262 1.780665
2004-02-10 08:06:10 51°16.167 2°44.36 7.051587 3.476615 34.200262 1.780665
2004-02-10 08:06:14 51°16.177 2°44.34 7.052618 3.478722 34.224981 1.881794
2004-02-10 08:06:18 51°16.187 2°44.321 7.05198 3.478089 34.220595 1.982922
2004-02-10 08:06:24 51°16.203 2°44.292 7.050703 3.479248 34.233266 2.016631
2004-02-10 08:06:29 51°16.216 2°44.269 7.048936 3.478406 34.225735 2.185178
2004-02-10 08:06:34 51°16.23 2°44.245 7.046873 3.478616 34.227197 1.982922
2004-02-10 08:06:38 51°16.24 2°44.226 7.046873 3.478616 34.227197 1.982922
2004-02-10 08:06:45 51°16.259 2°44.193 7.043142 3.478827 34.232027 1.881794
2004-02-10 08:06:50 51°16.273 2°44.17 7.047266 3.46334 34.066929 1.780665
2004-02-10 08:06:54 51°16.284 2°44.151 7.044124 3.478616 34.233935 1.881794
2004-02-10 08:06:58 51°16.296 2°44.133 7.044713 3.471768 34.158215 1.746956
2004-02-10 08:07:05 51°16.315 2°44.101 7.042455 3.47377 34.182623 1.814375
2004-02-10 08:07:09 51°16.327 2°44.083 7.042455 3.47377 34.182623 1.814375
2004-02-10 08:07:14 51°16.341 2°44.06 7.040147 3.476615 34.215413 2.050341
2004-02-10 08:07:20 51°16.357 2°44.032 7.042209 3.477668 34.22862 1.814375
2004-02-10 08:07:25 51°16.371 2°44.009 7.038772 3.4783 34.235534 1.915503
2004-02-10 08:07:29 51°16.383 2°43.99 7.037151 3.478195 34.235224 1.982922
2004-02-10 08:07:34 51°16.397 2°43.968 7.037593 3.477563 34.22831 1.982922
2004-02-10 08:07:40 51°16.413 2°43.94 7.037593 3.477563 34.22831 1.982922
2004-02-10 08:07:44 51°16.425 2°43.922 7.041865 3.476931 34.222238 2.08405
2004-02-10 08:07:50 51°16.441 2°43.894 7.040638 3.47809 34.2366 1.949212
2004-02-10 08:07:54 51°16.452 2°43.876 7.037102 3.477458 34.23137 1.982922
2004-02-10 08:07:59 51°16.467 2°43.854 7.036513 3.4783 34.239747 2.050341
2004-02-10 08:08:04 51°16.481 2°43.831 7.035236 3.477984 34.235447 1.949212
2004-02-10 08:08:09 51°16.495 2°43.809 7.035236 3.477984 34.235447 1.949212
2004-02-10 08:08:14 51°16.51 2°43.788 7.039607 3.478722 34.2452 1.881794
2004-02-10 08:08:20 51°16.527 2°43.761 7.039459 3.477668 34.234518 1.982922
2004-02-10 08:08:24 51°16.539 2°43.744 7.035727 3.478511 34.244581 1.915503
2004-02-10 08:08:29 51°16.553 2°43.722 7.036022 3.478195 34.241967 2.050341
2004-02-10 08:08:34 51°16.567 2°43.701 7.034549 3.478195 34.241124 2.050341
2004-02-10 08:08:38 51°16.579 2°43.683 7.034549 3.478195 34.241124 2.050341
2004-02-10 08:08:44 51°16.596 2°43.657 7.037593 3.477879 34.236823 2.117759
2004-02-10 08:08:50 51°16.613 2°43.631 7.036022 3.478195 34.240281 1.848084
2004-02-10 08:08:54 51°16.625 2°43.614 7.035482 3.477668 34.233675 2.016631
2004-02-10 08:09:00 51°16.642 2°43.588 7.038035 3.477879 34.238509 2.08405
2004-02-10 08:09:05 51°16.656 2°43.566 7.037691 3.4783 34.242276 2.185178
2004-02-10 08:09:09 51°16.667 2°43.548 7.037691 3.4783 34.242276 2.185178
2004-02-10 08:09:14 51°16.682 2°43.527 7.040294 3.478406 34.245115 1.949212
2004-02-10 08:09:20 51°16.699 2°43.502 7.038968 3.477984 34.239662 2.016631
2004-02-10 08:09:24 51°16.711 2°43.486 7.039754 3.477774 34.235671 2.117759
2004-02-10 08:09:30 51°16.729 2°43.461 7.041865 3.4783 34.241433 2.117759
2004-02-10 08:09:34 51°16.741 2°43.444 7.040638 3.477984 34.238819 2.286306
2004-02-10 08:09:40 51°16.759 2°43.419 7.040638 3.477984 34.238819 2.286306
2004-02-10 08:09:44 51°16.771 2°43.403 7.041718 3.478406 34.242586 2.117759
2004-02-10 08:09:49 51°16.786 2°43.383 7.043977 3.478616 34.244891 1.982922
2004-02-10 08:09:54 51°16.801 2°43.362 7.043387 3.477984 34.237133 2.218888
2004-02-10 08:10:00 51°16.818 2°43.337 7.043878 3.478511 34.242052 2.050341
2004-02-10 08:10:04 51°16.83 2°43.32 7.045155 3.479038 34.246972 2.050341
2004-02-10 08:10:10 51°16.848 2°43.295 7.045155 3.479038 34.246972 2.050341
2004-02-10 08:10:14 51°16.86 2°43.279 7.044468 3.479143 34.247281 2.016631
2004-02-10 08:10:19 51°16.875 2°43.258 7.0427 3.479038 34.245286 2.050341
2004-02-10 08:10:24 51°16.89 2°43.236 7.045646 3.479143 34.248124 2.185178
2004-02-10 08:10:29 51°16.905 2°43.216 7.045204 3.479143 34.247281 2.050341
2004-02-10 08:10:34 51°16.92 2°43.195 7.046088 3.479249 34.248434 2.151469
2004-02-10 08:10:39 51°16.935 2°43.174 7.046088 3.479249 34.248434 2.151469
2004-02-10 08:10:44 51°16.949 2°43.153 7.048641 3.479249 34.249277 2.218888
2004-02-10 08:10:50 51°16.967 2°43.128 7.048788 3.47967 34.252201 2.050341
2004-02-10 08:10:54 51°16.979 2°43.111 7.047463 3.480091 34.255967 2.08405
2004-02-10 08:11:00 51°16.997 2°43.085 7.047659 3.480197 34.256277 2.117759
2004-02-10 08:11:04 51°17.009 2°43.068 7.047021 3.480618 34.2592 2.117759
2004-02-10 08:11:09 51°17.025 2°43.047 7.047021 3.480618 34.2592 2.117759
2004-02-10 08:11:14 51°17.039 2°43.026 7.050212 3.480513 34.257205 2.08405
2004-02-10 08:11:20 51°17.057 2°43 7.051783 3.481145 34.264119 2.185178
2004-02-10 08:11:24 51°17.069 2°42.983 7.051096 3.481039 34.262966 2.08405
2004-02-10 08:11:29 51°17.084 2°42.963 7.051734 3.481145 34.263276 2.117759
2004-02-10 08:11:34 51°17.099 2°42.941 7.053403 3.481566 34.267885 1.949212
2004-02-10 08:11:40 51°17.116 2°42.916 7.053403 3.481566 34.267885 1.949212
2004-02-10 08:11:44 51°17.128 2°42.9 7.054091 3.481882 34.268812 2.151469
2004-02-10 08:11:49 51°17.142 2°42.879 7.056643 3.482409 34.275417 2.151469
2004-02-10 08:11:54 51°17.157 2°42.859 7.058509 3.48262 34.278566 2.08405
2004-02-10 08:12:00 51°17.174 2°42.833 7.060718 3.483252 34.284637 2.117759
2004-02-10 08:12:04 51°17.185 2°42.817 7.064792 3.483779 34.289555 1.949212
2004-02-10 08:12:10 51°17.202 2°42.791 7.064792 3.483779 34.289555 1.949212
2004-02-10 08:12:14 51°17.214 2°42.774 7.065724 3.484095 34.290481 2.08405
2004-02-10 08:12:20 51°17.231 2°42.747 7.070485 3.484411 34.29225 1.982922
2004-02-10 08:12:25 51°17.246 2°42.724 7.07343 3.485359 34.30009 2.185178
2004-02-10 08:12:29 51°17.257 2°42.706 7.0777 3.48578 34.303855 2.050341
2004-02-10 08:12:34 51°17.272 2°42.683 7.08349 3.486623 34.311385 2.151469
2004-02-10 08:12:40 51°17.29 2°42.658 7.08349 3.486623 34.311385 2.151469
2004-02-10 08:12:44 51°17.303 2°42.642 7.087906 3.487044 34.311773 1.949212
2004-02-10 08:12:50 51°17.322 2°42.619 7.092568 3.487887 34.318458 2.117759
2004-02-10 08:12:54 51°17.335 2°42.603 7.097425 3.488625 34.321458 2.117759
2004-02-10 08:13:00 51°17.356 2°42.581 7.104636 3.488835 34.319542 1.949212
2004-02-10 08:13:04 51°17.37 2°42.565 7.113612 3.489678 34.323693 2.151469
2004-02-10 08:13:10 51°17.391 2°42.542 7.113612 3.489678 34.323693 2.151469
2004-02-10 08:13:14 51°17.405 2°42.526 7.120527 3.490521 34.327843 2.185178
2004-02-10 08:13:20 51°17.425 2°42.503 7.123077 3.491469 34.333144 2.185178
2004-02-10 08:13:24 51°17.439 2°42.488 7.126755 3.492312 34.335605 2.218888
2004-02-10 08:13:29 51°17.456 2°42.469 7.131316 3.493681 34.344664 2.320016
2004-02-10 08:13:34 51°17.473 2°42.451 7.135483 3.494524 34.347967 2.353725
2004-02-10 08:13:40 51°17.493 2°42.428 7.135483 3.494524 34.347967 2.353725
2004-02-10 08:13:44 51°17.506 2°42.414 7.140239 3.495577 34.354414 2.387435
2004-02-10 08:13:49 51°17.523 2°42.395 7.143965 3.496104 34.355106 2.353725
2004-02-10 08:13:54 51°17.539 2°42.377 7.148328 3.496842 34.359786 2.387435
2004-02-10 08:14:00 51°17.559 2°42.354 7.154504 3.497895 34.367074 2.421144
2004-02-10 08:14:04 51°17.572 2°42.339 7.157935 3.498527 34.370603 2.454853
2004-02-10 08:14:09 51°17.588 2°42.321 7.157935 3.498527 34.370603 2.454853
2004-02-10 08:14:14 51°17.604 2°42.303 7.164551 3.499581 34.377045 2.454853
2004-02-10 08:14:19 51°17.62 2°42.285 7.168619 3.500107 34.379422 2.454853
2004-02-10 08:14:24 51°17.636 2°42.266 7.172882 3.501266 34.387856 2.421144
2004-02-10 08:14:29 51°17.652 2°42.248 7.178615 3.502109 34.391995 2.555982
2004-02-10 08:14:34 51°17.668 2°42.229 7.18278 3.503268 34.398739 2.522272
2004-02-10 08:14:39 51°17.684 2°42.211 7.18278 3.503268 34.398739 2.522272
2004-02-10 08:14:44 51°17.7 2°42.192 7.186356 3.504321 34.406863 2.522272
2004-02-10 08:14:49 51°17.716 2°42.174 7.188316 3.504953 34.407855 2.522272
2004-02-10 08:14:54 51°17.732 2°42.155 7.191549 3.505796 34.412834 2.6234
2004-02-10 08:14:59 51°17.748 2°42.137 7.194439 3.506428 34.416356 2.589691
2004-02-10 08:15:04 51°17.763 2°42.119 7.194929 3.507271 34.42049 2.488563
2004-02-10 08:15:09 51°17.78 2°42.103 7.194929 3.507271 34.42049 2.488563
2004-02-10 08:15:14 51°17.797 2°42.088 7.198358 3.507693 34.421712 2.522272
2004-02-10 08:15:20 51°17.817 2°42.071 7.194439 3.508219 34.424084 2.6234
2004-02-10 08:15:24 51°17.831 2°42.06 7.191304 3.508535 34.425001 2.522272
2004-02-10 08:15:29 51°17.849 2°42.047 7.181359 3.508957 34.427067 2.690819
2004-02-10 08:15:34 51°17.867 2°42.035 7.170481 3.508957 34.42538 2.6234
2004-02-10 08:15:40 51°17.888 2°42.022 7.170481 3.508957 34.42538 2.6234
2004-02-10 08:15:44 51°17.902 2°42.013 7.165777 3.509062 34.424842 2.488563
2004-02-10 08:15:49 51°17.92 2°42.003 7.152838 3.508746 34.424769 2.589691
2004-02-10 08:15:55 51°17.942 2°41.992 7.144112 3.506534 34.403167 2.555982
2004-02-10 08:16:00 51°17.96 2°41.983 7.142347 3.50706 34.419034 2.555982
2004-02-10 08:16:04 51°17.975 2°41.975 7.139798 3.50548 34.409385 2.488563
2004-02-10 08:16:10 51°17.997 2°41.965 7.139798 3.50548 34.409385 2.488563
2004-02-10 08:16:14 51°18.012 2°41.958 7.139209 3.5039 34.399732 2.421144
2004-02-10 08:16:20 51°18.033 2°41.947 7.135826 3.502425 34.394601 2.353725
2004-02-10 08:16:24 51°18.048 2°41.939 7.128962 3.501688 34.391613 2.387435
2004-02-10 08:16:30 51°18.069 2°41.928 7.122783 3.501266 34.390388 2.421144
2004-02-10 08:16:34 51°18.084 2°41.92 7.122538 3.500845 34.387474 2.353725
2004-02-10 08:16:40 51°18.106 2°41.909 7.122538 3.500845 34.387474 2.353725
2004-02-10 08:16:44 51°18.12 2°41.901 7.121361 3.500529 34.388243 2.421144
2004-02-10 08:16:49 51°18.139 2°41.892 7.1219 3.499791 34.383565 2.353725
2004-02-10 08:16:55 51°18.161 2°41.88 7.122489 3.499159 34.38257 2.320016
2004-02-10 08:17:00 51°18.179 2°41.871 7.124401 3.498527 34.379042 2.353725
2004-02-10 08:17:04 51°18.193 2°41.863 7.127393 3.497158 34.36577 2.218888
2004-02-10 08:17:10 51°18.215 2°41.852 7.127393 3.497158 34.36577 2.218888
2004-02-10 08:17:14 51°18.23 2°41.844 7.130678 3.498211 34.378966 2.252597
2004-02-10 08:17:20 51°18.252 2°41.832 7.134846 3.497579 34.371217 2.151469
2004-02-10 08:17:24 51°18.267 2°41.824 7.134993 3.49779 34.370987 2.151469
2004-02-10 08:17:30 51°18.288 2°41.812 7.136954 3.497895 34.372137 2.016631
2004-02-10 08:17:34 51°18.303 2°41.805 7.139749 3.498211 34.372214 2.185178
2004-02-10 08:17:40 51°18.325 2°41.793 7.139749 3.498211 34.372214 2.185178
2004-02-10 08:17:45 51°18.344 2°41.783 7.144112 3.498317 34.371677 2.320016
2004-02-10 08:17:49 51°18.358 2°41.775 7.148524 3.498738 34.373748 2.320016
2004-02-10 08:17:54 51°18.377 2°41.764 7.151857 3.498949 34.375205 2.320016
2004-02-10 08:18:00 51°18.399 2°41.752 7.1522 3.499159 34.374131 2.185178
2004-02-10 08:18:04 51°18.413 2°41.745 7.153818 3.499897 34.379652 2.185178
2004-02-10 08:18:10 51°18.436 2°41.733 7.153818 3.499897 34.379652 2.185178
2004-02-10 08:18:14 51°18.45 2°41.724 7.154798 3.500318 34.381723 2.353725
2004-02-10 08:18:20 51°18.473 2°41.712 7.156906 3.50095 34.384405 2.286306
2004-02-10 08:18:24 51°18.487 2°41.704 7.159552 3.501161 34.385018 2.218888
2004-02-10 08:18:29 51°18.506 2°41.693 7.159013 3.501477 34.385938 2.252597
2004-02-10 08:18:35 51°18.528 2°41.68 7.163081 3.501582 34.385401 2.252597
2004-02-10 08:18:40 51°18.546 2°41.67 7.163081 3.501582 34.385401 2.252597
2004-02-10 08:18:44 51°18.561 2°41.662 7.167639 3.501793 34.386014 2.454853
2004-02-10 08:18:50 51°18.583 2°41.65 7.169893 3.502109 34.387776 2.454853
2004-02-10 08:18:54 51°18.598 2°41.642 7.175675 3.50253 34.390689 2.286306
2004-02-10 08:19:00 51°18.62 2°41.629 7.182976 3.502741 34.391302 2.218888
2004-02-10 08:19:04 51°18.634 2°41.619 7.18665 3.503268 34.393677 2.387435
2004-02-10 08:19:09 51°18.652 2°41.609 7.18665 3.503268 34.393677 2.387435
2004-02-10 08:19:14 51°18.671 2°41.599 7.193459 3.504111 34.399501 2.320016
2004-02-10 08:19:20 51°18.693 2°41.591 7.201689 3.506112 34.417126 2.353725
2004-02-10 08:19:24 51°18.708 2°41.586 7.208104 3.504532 34.394822 2.353725
2004-02-10 08:19:29 51°18.727 2°41.581 7.214765 3.50685 34.417579 2.218888
2004-02-10 08:19:34 51°18.746 2°41.576 7.219123 3.507903 34.42148 2.252597
2004-02-10 08:19:40 51°18.768 2°41.572 7.219123 3.507903 34.42148 2.252597
2004-02-10 08:19:44 51°18.784 2°41.569 7.224362 3.509167 34.427678 2.151469
2004-02-10 08:19:50 51°18.807 2°41.566 7.225488 3.509589 34.425526 2.117759
2004-02-10 08:19:54 51°18.822 2°41.563 7.227202 3.510432 34.427971 2.151469
2004-02-10 08:20:00 51°18.844 2°41.56 7.23058 3.510853 34.426663 2.08405
2004-02-10 08:20:04 51°18.859 2°41.558 7.233028 3.510958 34.42444 2.117759
2004-02-10 08:20:09 51°18.878 2°41.555 7.233028 3.510958 34.42444 2.117759
2004-02-10 08:20:14 51°18.897 2°41.551 7.234056 3.511169 34.422523 2.185178
2004-02-10 08:20:20 51°18.92 2°41.548 7.2343 3.51138 34.421449 2.151469
2004-02-10 08:20:24 51°18.935 2°41.546 7.236895 3.511169 34.417467 2.151469
2004-02-10 08:20:29 51°18.954 2°41.543 7.239294 3.510958 34.412644 2.050341
2004-02-10 08:20:35 51°18.977 2°41.54 7.241105 3.510326 34.404914 1.982922
2004-02-10 08:20:40 51°18.996 2°41.538 7.241105 3.510326 34.404914 1.982922
2004-02-10 08:20:44 51°19.012 2°41.536 7.242867 3.510958 34.409275 2.151469
2004-02-10 08:20:50 51°19.034 2°41.533 7.245118 3.51001 34.398944 2.218888
2004-02-10 08:20:54 51°19.05 2°41.532 7.246685 3.510853 34.405601 2.08405
2004-02-10 08:21:00 51°19.071 2°41.531 7.248055 3.509904 34.39443 2.252597
2004-02-10 08:21:04 51°19.084 2°41.53 7.249719 3.512538 34.420598 2.252597
2004-02-10 08:21:10 51°19.103 2°41.529 7.249719 3.512538 34.420598 2.252597
2004-02-10 08:21:14 51°19.114 2°41.529 7.250257 3.511063 34.401163 2.252597
2004-02-10 08:21:20 51°19.129 2°41.529 7.251873 3.51159 34.403534 2.185178
2004-02-10 08:21:24 51°19.139 2°41.529 7.254417 3.511169 34.398102 2.08405
2004-02-10 08:21:29 51°19.15 2°41.53 7.254809 3.511274 34.398408 2.454853
2004-02-10 08:21:35 51°19.161 2°41.531 7.256179 3.511379 34.397873 2.353725
2004-02-10 08:21:40 51°19.17 2°41.533 7.256179 3.511379 34.397873 2.353725
2004-02-10 08:21:44 51°19.176 2°41.534 7.25569 3.511485 34.397338 2.286306
2004-02-10 08:21:50 51°19.183 2°41.535 7.259409 3.511063 34.390225 2.185178
2004-02-10 08:21:54 51°19.187 2°41.536 7.259947 3.512433 34.402615 2.320016
2004-02-10 08:22:00 51°19.192 2°41.536 7.259066 3.511379 34.391143 2.252597
2004-02-10 08:22:04 51°19.194 2°41.536 7.257158 3.511274 34.389155 2.252597
2004-02-10 08:22:09 51°19.197 2°41.536 7.257158 3.511274 34.389155 2.252597
2004-02-10 08:22:14 51°19.198 2°41.536 7.259311 3.511379 34.389461 2.320016
2004-02-10 08:22:18 51°19.199 2°41.535 7.256522 3.510958 34.384032 2.353725
2004-02-10 08:22:25 51°19.199 2°41.534 7.256815 3.510958 34.384032 2.286306
2004-02-10 08:22:29 51°19.199 2°41.533 7.258332 3.510852 34.382885 2.353725
2004-02-10 08:22:34 51°19.2 2°41.532 7.258186 3.511063 34.385179 2.320016
2004-02-10 08:22:40 51°19.2 2°41.531 7.258186 3.511063 34.385179 2.320016
2004-02-10 08:22:44 51°19.2 2°41.53 7.259164 3.511274 34.389155 2.387435
2004-02-10 08:22:49 51°19.201 2°41.53 7.259556 3.511379 34.389461 2.185178
2004-02-10 08:22:54 51°19.201 2°41.529 7.260534 3.510536 34.380285 2.320016
2004-02-10 08:23:00 51°19.201 2°41.528 7.260437 3.511063 34.386861 2.387435
2004-02-10 08:23:04 51°19.202 2°41.527 7.258969 3.511168 34.386326 2.454853
2004-02-10 08:23:09 51°19.202 2°41.527 7.258969 3.511168 34.386326 2.454853
2004-02-10 08:23:14 51°19.203 2°41.526 7.26029 3.510958 34.380669 2.387435
2004-02-10 08:23:18 51°19.203 2°41.526 7.260437 3.511379 34.387779 2.421144
2004-02-10 08:23:24 51°19.203 2°41.525 7.261171 3.510852 34.378682 2.286306
2004-02-10 08:23:29 51°19.204 2°41.525 7.26122 3.511485 34.387245 2.387435
2004-02-10 08:23:34 51°19.205 2°41.524 7.261366 3.511379 34.384416 2.353725
2004-02-10 08:23:40 51°19.205 2°41.523 7.261366 3.511379 34.384416 2.353725
2004-02-10 08:23:44 51°19.205 2°41.523 7.262002 3.510958 34.380669 2.286306
2004-02-10 08:23:49 51°19.206 2°41.523 7.261709 3.510958 34.380669 2.387435
2004-02-10 08:23:54 51°19.206 2°41.522 7.262981 3.512222 34.395274 2.286306
2004-02-10 08:23:58 51°19.206 2°41.522 7.262296 3.512011 34.391298 2.252597
2004-02-10 08:24:04 51°19.207 2°41.52 7.265379 3.511485 34.386404 2.488563
2004-02-10 08:24:09 51°19.208 2°41.52 7.265379 3.511485 34.386404 2.488563
2004-02-10 08:24:14 51°19.208 2°41.519 7.263128 3.511801 34.389845 2.151469
2004-02-10 08:24:18 51°19.209 2°41.519 7.263617 3.512433 34.395045 2.421144
2004-02-10 08:24:24 51°19.209 2°41.518 7.261366 3.511695 34.388698 2.252597
2004-02-10 08:24:30 51°19.21 2°41.517 7.26533 3.512433 34.396727 2.387435
2004-02-10 08:24:34 51°19.21 2°41.516 7.263079 3.511695 34.388698 2.421144
2004-02-10 08:24:40 51°19.211 2°41.515 7.263079 3.511695 34.388698 2.421144
2004-02-10 08:24:44 51°19.212 2°41.514 7.2644 3.512749 34.399327 2.320016
2004-02-10 08:24:49 51°19.212 2°41.514 7.262785 3.512222 34.392751 2.286306
2004-02-10 08:24:54 51°19.212 2°41.513 7.262198 3.511801 34.385641 2.185178
2004-02-10 08:24:58 51°19.213 2°41.512 7.263911 3.511906 34.388469 2.387435
2004-02-10 08:25:04 51°19.214 2°41.511 7.262981 3.511801 34.389004 2.387435
2004-02-10 08:25:10 51°19.214 2°41.509 7.262981 3.511801 34.389004 2.387435
2004-02-10 08:25:14 51°19.215 2°41.509 7.262541 3.511801 34.387323 2.421144
2004-02-10 08:25:20 51°19.215 2°41.507 7.261954 3.510958 34.382351 2.421144
2004-02-10 08:25:24 51°19.215 2°41.507 7.262981 3.511168 34.381282 2.454853
2004-02-10 08:25:29 51°19.216 2°41.505 7.260926 3.512854 34.398792 2.522272
2004-02-10 08:25:34 51°19.217 2°41.504 7.262932 3.511274 34.386632 2.421144
2004-02-10 08:25:38 51°19.217 2°41.503 7.262932 3.511274 34.386632 2.421144
2004-02-10 08:25:44 51°19.218 2°41.502 7.261171 3.512117 34.391604 2.353725
2004-02-10 08:25:50 51°19.218 2°41.5 7.262149 3.512117 34.391604 2.387435
2004-02-10 08:25:54 51°19.219 2°41.5 7.261807 3.512117 34.391604 2.421144
2004-02-10 08:26:00 51°19.22 2°41.498 7.261513 3.512327 34.393898 2.421144
2004-02-10 08:26:04 51°19.22 2°41.497 7.26029 3.511484 34.384723 2.387435
2004-02-10 08:26:09 51°19.22 2°41.496 7.26029 3.511484 34.384723 2.387435
2004-02-10 08:26:14 51°19.221 2°41.495 7.261709 3.510747 34.379216 2.353725
2004-02-10 08:26:18 51°19.221 2°41.494 7.261856 3.511801 34.388163 2.353725
2004-02-10 08:26:24 51°19.222 2°41.492 7.262981 3.512011 34.39298 2.286306
2004-02-10 08:26:29 51°19.222 2°41.491 7.261856 3.511695 34.387857 2.320016
2004-02-10 08:26:34 51°19.223 2°41.49 7.261415 3.512011 34.39298 2.353725
2004-02-10 08:26:38 51°19.223 2°41.489 7.261415 3.512011 34.39298 2.353725
2004-02-10 08:26:45 51°19.224 2°41.487 7.261807 3.511801 34.387323 2.286306
2004-02-10 08:26:49 51°19.224 2°41.486 7.262443 3.512222 34.393592 2.421144
2004-02-10 08:26:54 51°19.224 2°41.485 7.262492 3.51159 34.383348 2.185178
2004-02-10 08:27:00 51°19.225 2°41.484 7.262296 3.511801 34.391527 2.353725
2004-02-10 08:27:04 51°19.225 2°41.483 7.262149 3.512011 34.389616 2.353725
2004-02-10 08:27:09 51°19.225 2°41.482 7.262149 3.512011 34.389616 2.353725
2004-02-10 08:27:14 51°19.226 2°41.48 7.262051 3.512327 34.398944 2.353725
2004-02-10 08:27:20 51°19.226 2°41.479 7.262492 3.51159 34.387551 2.353725
2004-02-10 08:27:24 51°19.226 2°41.478 7.262198 3.511168 34.381282 2.320016
2004-02-10 08:27:30 51°19.227 2°41.477 7.263275 3.512433 34.394204 2.320016
2004-02-10 08:27:34 51°19.227 2°41.476 7.264107 3.511274 34.384951 2.353725
2004-02-10 08:27:38 51°19.227 2°41.475 7.264107 3.511274 34.384951 2.353725
2004-02-10 08:27:44 51°19.228 2°41.474 7.264547 3.511274 34.383269 2.185178
2004-02-10 08:27:49 51°19.228 2°41.473 7.266847 3.511906 34.394356 2.353725
2004-02-10 08:27:54 51°19.228 2°41.472 7.265917 3.51159 34.38671 2.454853
2004-02-10 08:28:00 51°19.229 2°41.471 7.266651 3.511801 34.386482 2.387435
2004-02-10 08:28:04 51°19.229 2°41.469 7.265917 3.511695 34.387016 2.353725
2004-02-10 08:28:09 51°19.23 2°41.469 7.265917 3.511695 34.387016 2.353725
2004-02-10 08:28:14 51°19.231 2°41.467 7.264596 3.512011 34.388776 2.320016
2004-02-10 08:28:18 51°19.233 2°41.466 7.265819 3.51159 34.384188 2.252597
2004-02-10 08:28:24 51°19.236 2°41.465 7.265428 3.511695 34.385335 2.320016
2004-02-10 08:28:29 51°19.239 2°41.465 7.265868 3.511695 34.384494 2.252597
2004-02-10 08:28:34 51°19.243 2°41.465 7.268119 3.511484 34.383041 2.320016
2004-02-10 08:28:40 51°19.247 2°41.467 7.268119 3.511484 34.383041 2.320016
2004-02-10 08:28:45 51°19.252 2°41.469 7.267483 3.511695 34.385335 2.218888
2004-02-10 08:28:50 51°19.255 2°41.474 7.274235 3.511379 34.383576 2.353725
2004-02-10 08:28:54 51°19.258 2°41.477 7.27169 3.511695 34.385335 2.218888
2004-02-10 08:29:00 51°19.262 2°41.484 7.27306 3.510958 34.375626 2.252597
2004-02-10 08:29:04 51°19.264 2°41.49 7.268804 3.51159 34.383348 2.185178
2004-02-10 08:29:09 51°19.266 2°41.497 7.268804 3.51159 34.383348 2.185178
2004-02-10 08:29:14 51°19.266 2°41.506 7.268119 3.511484 34.377999 2.286306
2004-02-10 08:29:20 51°19.266 2°41.516 7.274871 3.5118 34.381439 2.353725
2004-02-10 08:29:24 51°19.265 2°41.523 7.276143 3.512327 34.38297 2.387435
2004-02-10 08:29:30 51°19.262 2°41.533 7.277806 3.512433 34.385797 2.488563
2004-02-10 08:29:34 51°19.26 2°41.539 7.31698 3.511695 34.378611 2.421144
2004-02-10 08:29:40 51°19.255 2°41.549 7.31698 3.511695 34.378611 2.421144
2004-02-10 08:29:45 51°19.25 2°41.555 7.294388 3.511063 34.371732 2.353725
2004-02-10 08:29:50 51°19.244 2°41.561 7.299719 3.510536 34.36096 2.488563
2004-02-10 08:29:54 51°19.239 2°41.564 7.28304 3.509377 34.344992 2.488563
2004-02-10 08:29:59 51°19.232 2°41.567 7.288225 3.505374 34.293898 2.454853
2004-02-10 08:30:04 51°19.225 2°41.569 7.285144 3.505479 34.290018 2.421144
2004-02-10 08:30:09 51°19.218 2°41.57 7.285144 3.505479 34.290018 2.421144
2004-02-10 08:30:14 51°19.21 2°41.568 7.301284 3.506006 34.294908 2.454853
2004-02-10 08:30:19 51°19.202 2°41.565 7.295366 3.507165 34.310862 2.522272
2004-02-10 08:30:24 51°19.194 2°41.561 7.281084 3.506216 34.296362 2.488563
2004-02-10 08:30:30 51°19.185 2°41.553 7.296442 3.506111 34.292703 2.65711
2004-02-10 08:30:34 51°19.179 2°41.547 7.278686 3.505584 34.285301 2.522272
2004-02-10 08:30:40 51°19.17 2°41.535 7.278686 3.505584 34.285301 2.522272
2004-02-10 08:30:44 51°19.164 2°41.525 7.278246 3.506111 34.289354 2.555982
2004-02-10 08:30:50 51°19.157 2°41.508 7.285535 3.508218 34.325674 2.522272
2004-02-10 08:30:54 51°19.152 2°41.496 7.277463 3.508534 34.326596 2.387435
2004-02-10 08:31:00 51°19.147 2°41.476 7.281573 3.50864 34.331097 2.488563
2004-02-10 08:31:05 51°19.144 2°41.459 7.282209 3.509588 34.346445 2.454853
2004-02-10 08:31:09 51°19.142 2°41.444 7.282209 3.509588 34.346445 2.454853
2004-02-10 08:31:14 51°19.141 2°41.424 7.273892 3.50885 34.335905 2.488563
2004-02-10 08:31:18 51°19.14 2°41.409 7.265036 3.508745 34.335598 2.488563
2004-02-10 08:31:24 51°19.14 2°41.385 7.267189 3.509588 34.346445 2.387435
2004-02-10 08:31:29 51°19.141 2°41.364 7.266357 3.50864 34.331935 2.522272
2004-02-10 08:31:34 51°19.143 2°41.343 7.262345 3.509588 34.346445 2.6234
2004-02-10 08:31:40 51°19.145 2°41.317 7.262345 3.509588 34.346445 2.6234
2004-02-10 08:31:44 51°19.148 2°41.3 7.262541 3.510115 34.360573 2.421144
2004-02-10 08:31:49 51°19.151 2°41.277 7.264302 3.510431 34.366532 2.454853
2004-02-10 08:31:54 51°19.156 2°41.255 7.261317 3.510852 34.370278 2.522272
2004-02-10 08:32:00 51°19.161 2°41.228 7.26533 3.511063 34.375092 2.320016
2004-02-10 08:32:04 51°19.165 2°41.209 7.261856 3.510852 34.37616 2.454853
2004-02-10 08:32:09 51°19.169 2°41.185 7.261856 3.510852 34.37616 2.454853
2004-02-10 08:32:14 51°19.172 2°41.16 7.262051 3.511801 34.385641 2.555982
2004-02-10 08:32:19 51°19.176 2°41.135 7.263275 3.510958 34.375626 2.353725
2004-02-10 08:32:24 51°19.179 2°41.109 7.264547 3.510642 34.372186 2.320016
2004-02-10 08:32:29 51°19.182 2°41.083 7.265721 3.51159 34.385029 2.488563
2004-02-10 08:32:34 51°19.186 2°41.056 7.263764 3.511274 34.380748 2.353725
2004-02-10 08:32:40 51°19.191 2°41.024 7.263764 3.511274 34.380748 2.353725
2004-02-10 08:32:44 51°19.194 2°41.002 7.267336 3.512327 34.393057 2.421144
2004-02-10 08:32:49 51°19.198 2°40.976 7.266015 3.512327 34.393057 2.421144
2004-02-10 08:32:54 51°19.202 2°40.949 7.271642 3.512643 34.396498 2.421144
2004-02-10 08:32:58 51°19.205 2°40.929 7.270321 3.512327 34.392216 2.522272
2004-02-10 08:33:04 51°19.209 2°40.899 7.271054 3.512327 34.389694 2.454853
2004-02-10 08:33:10 51°19.214 2°40.871 7.271054 3.512327 34.389694 2.454853
2004-02-10 08:33:14 51°19.217 2°40.853 7.274577 3.511801 34.38396 2.421144
2004-02-10 08:33:20 51°19.222 2°40.828 7.276485 3.512222 34.387707 2.454853
2004-02-10 08:33:24 51°19.225 2°40.812 7.27443 3.512117 34.385719 2.454853
2004-02-10 08:33:29 51°19.229 2°40.793 7.274577 3.512117 34.382357 2.522272
2004-02-10 08:33:34 51°19.233 2°40.775 7.274919 3.512327 34.384651 2.488563
2004-02-10 08:33:40 51°19.237 2°40.755 7.274919 3.512327 34.384651 2.488563
2004-02-10 08:33:44 51°19.24 2°40.742 7.275311 3.512854 34.385341 2.421144
2004-02-10 08:33:50 51°19.245 2°40.724 7.276143 3.512433 34.383276 2.454853
2004-02-10 08:33:54 51°19.248 2°40.712 7.276632 3.512222 34.379303 2.522272
2004-02-10 08:33:59 51°19.253 2°40.699 7.279861 3.512959 34.38985 2.555982
2004-02-10 08:34:04 51°19.258 2°40.687 7.276436 3.5118 34.375557 2.454853
2004-02-10 08:34:09 51°19.263 2°40.677 7.276436 3.5118 34.375557 2.454853
2004-02-10 08:34:14 51°19.268 2°40.667 7.277806 3.512538 34.381902 2.387435
2004-02-10 08:34:19 51°19.273 2°40.659 7.281475 3.512749 34.384195 2.421144
2004-02-10 08:34:24 51°19.278 2°40.651 7.284361 3.512116 34.378156 2.488563
2004-02-10 08:34:29 51°19.284 2°40.645 7.283138 3.512749 34.384195 2.421144
2004-02-10 08:34:34 51°19.289 2°40.638 7.283725 3.513065 34.386794 2.421144
2004-02-10 08:34:40 51°19.294 2°40.632 7.283725 3.513065 34.386794 2.421144
2004-02-10 08:34:44 51°19.297 2°40.628 7.287247 3.513065 34.386794 2.421144
2004-02-10 08:34:49 51°19.3 2°40.625 7.286856 3.513381 34.386872 2.522272
2004-02-10 08:34:54 51°19.302 2°40.621 7.286366 3.514013 34.391229 2.555982
2004-02-10 08:34:58 51°19.304 2°40.62 7.287247 3.513591 34.385804 2.589691
2004-02-10 08:35:04 51°19.306 2°40.616 7.287394 3.51475 34.396733 2.488563
2004-02-10 08:35:10 51°19.308 2°40.614 7.287394 3.51475 34.396733 2.488563
2004-02-10 08:35:14 51°19.309 2°40.612 7.287394 3.514118 34.390695 2.488563
2004-02-10 08:35:19 51°19.309 2°40.611 7.291209 3.515277 34.402464 2.555982
2004-02-10 08:35:24 51°19.311 2°40.608 7.291209 3.51475 34.396733 2.488563
2004-02-10 08:35:29 51°19.312 2°40.607 7.2916 3.514645 34.395586 2.488563
2004-02-10 08:35:34 51°19.313 2°40.605 7.292774 3.515593 34.403382 2.6234
2004-02-10 08:35:38 51°19.314 2°40.605 7.292774 3.515593 34.403382 2.6234
2004-02-10 08:35:44 51°19.315 2°40.604 7.293899 3.514961 34.397345 2.6234
2004-02-10 08:35:49 51°19.317 2°40.603 7.293361 3.515593 34.403382 2.522272
2004-02-10 08:35:54 51°19.318 2°40.602 7.293997 3.515804 34.404834 2.589691
2004-02-10 08:35:59 51°19.319 2°40.602 7.293605 3.515593 34.40002 2.522272
2004-02-10 08:36:04 51°19.32 2°40.602 7.295415 3.515277 34.396582 2.454853
2004-02-10 08:36:09 51°19.321 2°40.602 7.295415 3.515277 34.396582 2.454853
2004-02-10 08:36:14 51°19.322 2°40.601 7.296491 3.516331 34.407203 2.488563
2004-02-10 08:36:20 51°19.324 2°40.601 7.295806 3.515909 34.403459 2.488563
2004-02-10 08:36:24 51°19.325 2°40.601 7.297078 3.51612 34.404911 2.421144
2004-02-10 08:36:30 51°19.326 2°40.602 7.298056 3.516541 34.410336 2.488563
2004-02-10 08:36:34 51°19.327 2°40.602 7.297909 3.516014 34.402084 2.454853
2004-02-10 08:36:40 51°19.329 2°40.602 7.297909 3.516014 34.402084 2.454853
2004-02-10 08:36:44 51°19.33 2°40.603 7.295855 3.516436 34.406668 2.454853
2004-02-10 08:36:49 51°19.332 2°40.603 7.295806 3.516331 34.404682 2.488563
2004-02-10 08:36:54 51°19.333 2°40.604 7.295806 3.516963 34.412399 2.690819
2004-02-10 08:36:58 51°19.335 2°40.605 7.297616 3.516436 34.404987 2.522272
2004-02-10 08:37:04 51°19.337 2°40.606 7.298496 3.516647 34.40728 2.488563
2004-02-10 08:37:09 51°19.338 2°40.607 7.298496 3.516647 34.40728 2.488563
2004-02-10 08:37:14 51°19.34 2°40.607 7.30099 3.516331 34.403001 2.65711
2004-02-10 08:37:18 51°19.341 2°40.609 7.30456 3.516541 34.405293 2.421144
2004-02-10 08:37:25 51°19.344 2°40.61 7.305294 3.516963 34.409877 2.387435
2004-02-10 08:37:29 51°19.345 2°40.611 7.305245 3.516541 34.405293 2.454853
2004-02-10 08:37:34 51°19.346 2°40.612 7.304902 3.516647 34.406439 2.522272
2004-02-10 08:37:38 51°19.347 2°40.613 7.304902 3.516647 34.406439 2.522272
2004-02-10 08:37:44 51°19.349 2°40.615 7.303973 3.516752 34.404224 2.421144
2004-02-10 08:37:49 51°19.35 2°40.617 7.304658 3.516752 34.400864 2.454853
2004-02-10 08:37:54 51°19.351 2°40.619 7.30187 3.516541 34.398572 2.421144
2004-02-10 08:38:00 51°19.353 2°40.621 7.302897 3.517068 34.404301 2.387435
2004-02-10 08:38:05 51°19.353 2°40.623 7.303386 3.517173 34.405447 2.387435
2004-02-10 08:38:09 51°19.354 2°40.625 7.303386 3.517173 34.405447 2.387435
2004-02-10 08:38:14 51°19.354 2°40.627 7.303631 3.517279 34.406593 2.387435
2004-02-10 08:38:18 51°19.355 2°40.629 7.30099 3.517279 34.407433 2.724529
2004-02-10 08:38:24 51°19.355 2°40.631 7.30187 3.516647 34.402238 2.421144
2004-02-10 08:38:29 51°19.355 2°40.633 7.300746 3.516647 34.402238 2.286306
2004-02-10 08:38:34 51°19.355 2°40.636 7.300403 3.517068 34.407662 2.353725
2004-02-10 08:38:40 51°19.355 2°40.638 7.300403 3.517068 34.407662 2.353725
2004-02-10 08:38:44 51°19.355 2°40.64 7.299963 3.516857 34.40369 2.353725
2004-02-10 08:38:49 51°19.355 2°40.643 7.303191 3.516436 34.399107 2.387435
2004-02-10 08:38:54 51°19.355 2°40.645 7.302017 3.516857 34.40453 2.522272
2004-02-10 08:39:00 51°19.355 2°40.648 7.301626 3.516857 34.40453 2.353725
2004-02-10 08:39:04 51°19.355 2°40.65 7.300843 3.517173 34.409648 2.387435
2004-02-10 08:39:10 51°19.354 2°40.653 7.300843 3.517173 34.409648 2.387435
2004-02-10 08:39:14 51°19.354 2°40.655 7.30099 3.516541 34.401932 2.387435
2004-02-10 08:39:20 51°19.354 2°40.658 7.301235 3.516857 34.40369 2.353725
2004-02-10 08:39:24 51°19.354 2°40.66 7.300599 3.516857 34.40453 2.387435
2004-02-10 08:39:29 51°19.353 2°40.663 7.30099 3.517279 34.408273 2.421144
2004-02-10 08:39:34 51°19.353 2°40.666 7.300746 3.516857 34.40621 2.421144
2004-02-10 08:39:40 51°19.353 2°40.669 7.300746 3.516857 34.40621 2.421144
2004-02-10 08:39:44 51°19.353 2°40.671 7.300501 3.517173 34.408808 2.454853
2004-02-10 08:39:49 51°19.352 2°40.673 7.298838 3.517384 34.4111 2.454853
2004-02-10 08:39:54 51°19.352 2°40.676 7.297518 3.517279 34.409954 2.387435
2004-02-10 08:39:59 51°19.351 2°40.678 7.298447 3.516436 34.400787 2.488563
2004-02-10 08:40:04 51°19.351 2°40.68 7.299279 3.516647 34.402238 2.522272
2004-02-10 08:40:10 51°19.35 2°40.683 7.299279 3.516647 34.402238 2.522272
2004-02-10 08:40:14 51°19.35 2°40.684 7.296931 3.516752 34.402544 2.522272
2004-02-10 08:40:20 51°19.348 2°40.687 7.29517 3.516541 34.401932 2.320016
2004-02-10 08:40:24 51°19.348 2°40.688 7.294828 3.516225 34.398495 2.454853
2004-02-10 08:40:29 51°19.347 2°40.69 7.293508 3.516225 34.399335 2.488563
2004-02-10 08:40:34 51°19.346 2°40.692 7.292138 3.516436 34.402467 2.454853
2004-02-10 08:40:38 51°19.345 2°40.693 7.292138 3.516436 34.402467 2.454853
2004-02-10 08:40:45 51°19.344 2°40.696 7.293116 3.516752 34.406745 2.353725
2004-02-10 08:40:50 51°19.342 2°40.697 7.292432 3.51612 34.400709 2.286306
2004-02-10 08:40:54 51°19.341 2°40.698 7.293752 3.515488 34.393833 2.320016
2004-02-10 08:41:00 51°19.339 2°40.7 7.293312 3.516331 34.403841 2.454853
2004-02-10 08:41:04 51°19.338 2°40.701 7.293605 3.515804 34.399792 2.320016
2004-02-10 08:41:09 51°19.336 2°40.702 7.293605 3.515804 34.399792 2.320016
2004-02-10 08:41:14 51°19.335 2°40.703 7.295806 3.516014 34.400403 2.488563
2004-02-10 08:41:18 51°19.333 2°40.704 7.294192 3.515804 34.398952 2.488563
2004-02-10 08:41:24 51°19.331 2°40.704 7.295366 3.516014 34.402084 2.421144
2004-02-10 08:41:29 51°19.329 2°40.705 7.298496 3.51612 34.40239 2.421144
2004-02-10 08:41:34 51°19.327 2°40.705 7.297127 3.516014 34.400403 2.421144
2004-02-10 08:41:40 51°19.325 2°40.706 7.297127 3.516014 34.400403 2.421144
2004-02-10 08:41:44 51°19.324 2°40.706 7.297909 3.516331 34.405522 2.454853
2004-02-10 08:41:49 51°19.322 2°40.706 7.297665 3.515804 34.398111 2.488563
2004-02-10 08:41:54 51°19.32 2°40.706 7.297518 3.516647 34.40812 2.353725
2004-02-10 08:41:58 51°19.318 2°40.706 7.29698 3.516752 34.408426 2.555982
2004-02-10 08:42:04 51°19.316 2°40.706 7.294877 3.516436 34.402467 2.555982
2004-02-10 08:42:09 51°19.314 2°40.705 7.294877 3.516436 34.402467 2.555982
2004-02-10 08:42:14 51°19.312 2°40.705 7.295513 3.516541 34.402773 2.555982
2004-02-10 08:42:20 51°19.31 2°40.704 7.294877 3.516436 34.402467 2.555982
2004-02-10 08:42:24 51°19.309 2°40.704 7.294486 3.51612 34.398189 2.522272
2004-02-10 08:42:29 51°19.307 2°40.703 7.29385 3.516331 34.402161 2.522272
2004-02-10 08:42:34 51°19.305 2°40.702 7.294877 3.515909 34.398417 2.421144
2004-02-10 08:42:39 51°19.303 2°40.701 7.294877 3.515909 34.398417 2.421144
2004-02-10 08:42:44 51°19.301 2°40.701 7.293899 3.516225 34.401855 2.488563
2004-02-10 08:42:49 51°19.299 2°40.699 7.292529 3.51612 34.400709 2.589691
2004-02-10 08:42:54 51°19.297 2°40.698 7.293361 3.516014 34.398723 2.454853
2004-02-10 08:42:58 51°19.296 2°40.698 7.292089 3.516014 34.400403 2.353725
2004-02-10 08:43:05 51°19.294 2°40.696 7.291747 3.516014 34.400403 2.387435
2004-02-10 08:43:10 51°19.292 2°40.694 7.291747 3.516014 34.400403 2.387435
2004-02-10 08:43:14 51°19.29 2°40.694 7.291991 3.515382 34.396048 2.421144
2004-02-10 08:43:20 51°19.289 2°40.693 7.2916 3.515382 34.395208 2.286306
2004-02-10 08:43:24 51°19.287 2°40.692 7.292872 3.515804 34.398111 2.353725
2004-02-10 08:43:29 51°19.286 2°40.691 7.293361 3.515172 34.392915 2.353725
2004-02-10 08:43:34 51°19.284 2°40.689 7.29248 3.515172 34.393755 2.421144
2004-02-10 08:43:40 51°19.282 2°40.688 7.29248 3.515172 34.393755 2.421144
2004-02-10 08:43:44 51°19.281 2°40.687 7.29385 3.515172 34.394596 2.353725
2004-02-10 08:43:49 51°19.28 2°40.686 7.294828 3.515698 34.398646 2.454853
2004-02-10 08:43:54 51°19.278 2°40.685 7.292921 3.515277 34.393221 2.421144
2004-02-10 08:43:59 51°19.276 2°40.684 7.293116 3.515172 34.394596 2.421144
2004-02-10 08:44:04 51°19.274 2°40.683 7.293263 3.515488 34.397194 2.522272
2004-02-10 08:44:09 51°19.273 2°40.682 7.293263 3.515488 34.397194 2.522272
2004-02-10 08:44:14 51°19.271 2°40.681 7.29385 3.515593 34.396659 2.454853
2004-02-10 08:44:20 51°19.269 2°40.68 7.293214 3.515488 34.397194 2.320016
2004-02-10 08:44:24 51°19.268 2°40.68 7.291111 3.515804 34.397271 2.286306
2004-02-10 08:44:29 51°19.266 2°40.679 7.288861 3.515382 34.395208 2.421144
2004-02-10 08:44:34 51°19.264 2°40.678 7.288568 3.515277 34.394061 2.353725
2004-02-10 08:44:40 51°19.262 2°40.677 7.288568 3.515277 34.394061 2.353725
2004-02-10 08:44:44 51°19.261 2°40.676 7.289106 3.515277 34.394061 2.522272
2004-02-10 08:44:49 51°19.259 2°40.675 7.289497 3.51475 34.388331 2.454853
2004-02-10 08:44:54 51°19.257 2°40.674 7.288176 3.515172 34.394596 2.421144
2004-02-10 08:44:58 51°19.256 2°40.674 7.287932 3.514961 34.394824 2.421144
2004-02-10 08:45:04 51°19.254 2°40.673 7.286464 3.514856 34.393678 2.454853
2004-02-10 08:45:09 51°19.252 2°40.671 7.286464 3.514856 34.393678 2.454853
2004-02-10 08:45:14 51°19.251 2°40.671 7.287932 3.514856 34.392838 2.320016
2004-02-10 08:45:20 51°19.248 2°40.669 7.285975 3.514856 34.393678 2.421144
2004-02-10 08:45:24 51°19.247 2°40.668 7.286807 3.51475 34.393372 2.218888
2004-02-10 08:45:29 51°19.245 2°40.667 7.285388 3.514856 34.394518 2.218888
2004-02-10 08:45:34 51°19.244 2°40.666 7.284067 3.514118 34.386495 2.421144
2004-02-10 08:45:38 51°19.243 2°40.665 7.284067 3.514118 34.386495 2.421144
2004-02-10 08:45:45 51°19.24 2°40.664 7.283236 3.514434 34.391613 2.320016
2004-02-10 08:45:49 51°19.239 2°40.663 7.282649 3.514329 34.390467 2.353725
2004-02-10 08:45:54 51°19.238 2°40.662 7.281768 3.514329 34.391307 2.387435
2004-02-10 08:45:58 51°19.236 2°40.662 7.281915 3.514645 34.398108 2.387435
2004-02-10 08:46:05 51°19.234 2°40.661 7.279029 3.514434 34.393294 2.252597
2004-02-10 08:46:09 51°19.233 2°40.66 7.279029 3.514434 34.393294 2.252597
2004-02-10 08:46:14 51°19.232 2°40.659 7.281915 3.513907 34.390083 2.252597
2004-02-10 08:46:19 51°19.23 2°40.659 7.280888 3.513907 34.389243 2.320016
2004-02-10 08:46:24 51°19.229 2°40.658 7.280986 3.513591 34.387484 2.286306
2004-02-10 08:46:29 51°19.227 2°40.658 7.279176 3.512749 34.379154 2.454853
2004-02-10 08:46:34 51°19.226 2°40.657 7.279958 3.513381 34.386872 2.353725
2004-02-10 08:46:40 51°19.224 2°40.658 7.279958 3.513381 34.386872 2.353725
2004-02-10 08:46:44 51°19.223 2°40.657 7.280056 3.513802 34.391458 2.218888
2004-02-10 08:46:49 51°19.221 2°40.657 7.282551 3.513275 34.384886 2.286306
2004-02-10 08:46:54 51°19.221 2°40.657 7.280545 3.513275 34.385726 2.320016
2004-02-10 08:47:00 51°19.218 2°40.657 7.281181 3.51317 34.383739 2.353725
2004-02-10 08:47:04 51°19.217 2°40.657 7.281719 3.513065 34.382593 2.387435
2004-02-10 08:47:09 51°19.215 2°40.657 7.281719 3.513065 34.382593 2.387435
2004-02-10 08:47:14 51°19.214 2°40.657 7.284899 3.513486 34.386338 2.286306
2004-02-10 08:47:18 51°19.212 2°40.657 7.28348 3.51317 34.383739 2.320016
2004-02-10 08:47:24 51°19.21 2°40.657 7.286758 3.512959 34.382287 2.488563
2004-02-10 08:47:29 51°19.208 2°40.656 7.281817 3.514013 34.39291 2.454853
2004-02-10 08:47:34 51°19.206 2°40.656 7.284214 3.51317 34.381219 2.353725
2004-02-10 08:47:40 51°19.204 2°40.655 7.284214 3.51317 34.381219 2.353725
2004-02-10 08:47:44 51°19.202 2°40.655 7.285633 3.513275 34.381525 2.387435
2004-02-10 08:47:49 51°19.2 2°40.654 7.285828 3.51317 34.379539 2.387435
2004-02-10 08:47:54 51°19.198 2°40.653 7.283089 3.513802 34.383896 2.421144
2004-02-10 08:47:59 51°19.196 2°40.652 7.284948 3.513486 34.383818 2.454853
2004-02-10 08:48:04 51°19.194 2°40.651 7.282893 3.51317 34.380379 2.488563
2004-02-10 08:48:09 51°19.192 2°40.65 7.282893 3.51317 34.380379 2.488563
2004-02-10 08:48:14 51°19.19 2°40.649 7.283578 3.513591 34.384124 2.522272
2004-02-10 08:48:20 51°19.187 2°40.647 7.286464 3.513697 34.38527 2.454853
2004-02-10 08:48:25 51°19.185 2°40.646 7.284752 3.512854 34.376101 2.421144
2004-02-10 08:48:29 51°19.183 2°40.645 7.28485 3.513275 34.380685 2.454853